CW1648 Weather Reports


time (UTC)temp
F
wind
direction
speed
knots
gust
knots
rain 1hr
in
rain 24hr
in
rain mn
in
humidity
%
barometer
mb
20260506162610 61 0 3.5 12.2 0.07 0.14 0.14 92 1004.9
20260506162605 61 0 2.6 12.2 0.07 0.14 0.14 92 1004.9
20260506162520 61 360 0.0 12.2 0.07 0.14 0.14 92 1005.0
20260506162354 61 0 3.5 12.2 0.07 0.14 0.14 92 1004.9
20260506162308 61 0 2.6 12.2 0.07 0.14 0.14 92 1004.9
20260506162253 61 0 2.6 12.2 0.07 0.14 0.14 92 1004.9
20260506162153 61 0 2.6 12.2 0.07 0.14 0.14 92 1004.9
20260506162053 61 0 1.7 12.2 0.08 0.14 0.14 92 1005.1
20260506162027 61 0 0.9 10.4 0.08 0.14 0.14 92 1005.4
20260506162020 61 360 8.7 12.2 0.08 0.14 0.14 92 1005.3
20260506161951 61 0 0.9 12.2 0.08 0.14 0.14 92 1005.1
20260506161915 61 0 0.9 10.4 0.08 0.14 0.14 92 1005.2
20260506161751 61 0 0.9 10.4 0.08 0.14 0.14 92 1005.4
20260506161650 61 0 0.9 7.8 0.09 0.14 0.14 92 1005.4
20260506161549 61 0 0.9 5.2 0.09 0.14 0.14 92 1005.5
20260506161520 61 360 0.0 5.2 0.09 0.14 0.14 92 1005.7
20260506161450 61 0 0.9 5.2 0.08 0.13 0.14 92 1005.6
20260506161349 61 0 0.0 5.2 0.08 0.13 0.13 92 1005.7
20260506161305 61 0 0.9 4.3 0.08 0.13 0.13 92 1005.8
20260506161248 61 0 0.9 4.3 0.08 0.13 0.13 92 1005.8
20260506161148 61 0 0.9 4.3 0.08 0.13 0.13 92 1005.8
20260506161047 61 0 0.9 4.3 0.09 0.13 0.13 92 1005.8
20260506161020 61 360 0.0 4.3 0.09 0.13 0.13 91 1006.0
20260506160946 61 0 0.9 4.3 0.09 0.13 0.13 91 1005.9
20260506160905 61 0 0.0 4.3 0.09 0.13 0.13 91 1006.0
20260506160852 61 0 0.0 4.3 0.09 0.13 0.13 91 1006.0
20260506160644 61 0 0.0 4.3 0.09 0.13 0.13 91 1006.1
20260506160543 61 0 0.0 2.6 0.09 0.13 0.13 92 1006.2
20260506160520 61 360 0.0 2.6 0.09 0.13 0.13 92 1006.3
20260506160458 61 0 0.0 2.6 0.09 0.13 0.13 91 1006.3
20260506160453 61 0 0.0 2.6 0.09 0.13 0.13 92 1006.2
20260506160303 61 0 0.0 2.6 0.09 0.13 0.13 91 1006.3
20260506160241 61 0 0.0 2.6 0.09 0.13 0.13 91 1006.3
20260506160201 61 0 0.0 2.6 0.09 0.13 0.13 91 1006.3
20260506160050 61 360 0.0 3.5 0.09 0.13 0.13 91 1006.5
20260506160047 61 0 0.0 2.6 0.09 0.13 0.13 91 1006.3
20260506155837 61 0 0.9 9.6 0.09 0.13 0.13 91 1006.3
20260506155819 61 0 0.9 9.6 0.09 0.12 0.12 91 1006.4
20260506155814 61 0 0.9 9.6 0.10 0.13 0.13 91 1006.3
20260506155807 61 0 0.9 9.6 0.10 0.13 0.13 91 1006.3
20260506155654 61 0 0.9 9.6 0.09 0.12 0.12 91 1006.4
20260506155520 61 360 0.0 9.6 0.09 0.12 0.12 91 1006.5
20260506155335 61 0 0.9 9.6 0.09 0.12 0.12 91 1006.5
20260506155234 61 0 0.9 9.6 0.09 0.12 0.12 91 1006.5
20260506155132 61 0 0.9 9.6 0.08 0.11 0.12 91 1006.5
20260506155035 61 360 1.7 9.6 0.08 0.11 0.11 91 1006.6
20260506155032 61 0 0.0 9.6 0.08 0.11 0.11 91 1006.5
20260506154932 61 0 0.0 9.6 0.08 0.11 0.11 91 1006.5
20260506154831 61 0 0.0 2.6 0.08 0.11 0.11 91 1006.6
20260506154730 61 0 0.0 2.6 0.08 0.11 0.11 91 1006.5
20260506154642 61 0 0.0 3.5 0.08 0.11 0.11 90 1006.6
20260506154637 61 0 0.0 2.6 0.08 0.11 0.11 90 1006.6
20260506154520 61 360 0.0 3.5 0.08 0.11 0.11 90 1006.7
20260506154442 61 0 0.0 3.5 0.07 0.10 0.10 90 1006.7
20260506154436 61 0 0.0 3.5 0.07 0.10 0.10 90 1006.6
20260506154259 61 0 0.0 3.5 0.08 0.10 0.10 90 1006.7
20260506154226 61 0 0.0 3.5 0.08 0.10 0.10 90 1006.7
20260506154139 61 0 0.0 5.2 0.08 0.10 0.10 90 1006.7
20260506154134 61 0 0.0 3.5 0.08 0.10 0.10 90 1006.7
20260506154020 61 360 0.0 5.2 0.08 0.10 0.10 90 1006.7
20260506154018 61 0 0.9 5.2 0.07 0.09 0.09 90 1006.6
20260506153925 61 0 0.0 5.2 0.08 0.10 0.10 90 1006.6
20260506153907 61 0 0.0 5.2 0.07 0.09 0.10 90 1006.6
20260506153725 61 0 0.9 7.8 0.07 0.09 0.09 89 1006.6
20260506153623 61 0 0.9 7.8 0.07 0.09 0.09 89 1006.6
20260506153521 61 0 0.0 7.8 0.07 0.09 0.09 89 1006.7
20260506153420 61 0 0.0 7.8 0.08 0.09 0.09 89 1006.6
20260506153338 62 0 0.0 7.8 0.07 0.08 0.08 89 1006.5
20260506153333 62 0 0.0 7.8 0.08 0.09 0.09 89 1006.5
20260506153325 62 0 0.0 7.8 0.08 0.09 0.09 89 1006.5
20260506153118 62 0 0.0 7.8 0.07 0.08 0.08 89 1006.5
20260506153020 62 360 0.0 7.8 0.07 0.08 0.08 89 1006.7
20260506153018 62 0 0.0 7.8 0.07 0.08 0.08 89 1006.6
20260506152917 62 0 0.0 7.8 0.07 0.08 0.08 89 1006.6
20260506152819 62 0 0.0 7.8 0.07 0.08 0.08 89 1006.6
20260506152755 62 0 0.0 7.8 0.08 0.08 0.08 88 1006.6
20260506152718 62 0 0.0 4.3 0.07 0.07 0.08 88 1006.6
20260506152615 62 0 0.0 4.3 0.07 0.07 0.07 88 1006.6
20260506152521 62 360 0.0 4.3 0.07 0.07 0.07 88 1006.6
20260506152515 62 0 0.0 4.3 0.07 0.07 0.07 88 1006.5
20260506152415 62 0 0.0 4.3 0.07 0.07 0.07 88 1006.5
20260506152315 62 0 0.0 4.3 0.07 0.07 0.07 88 1006.5
20260506152256 62 0 0.0 4.3 0.07 0.07 0.07 88 1006.6
20260506152214 62 0 0.0 4.3 0.07 0.07 0.07 88 1006.6
20260506152135 62 0 0.0 4.3 0.06 0.06 0.07 88 1006.7
20260506152022 62 0 0.0 4.3 0.06 0.06 0.06 87 1006.6
20260506152020 62 360 0.0 4.3 0.06 0.06 0.06 87 1006.7
20260506151811 62 0 0.0 7.0 0.06 0.06 0.06 88 1006.7
20260506151756 62 0 0.0 7.0 0.06 0.06 0.06 88 1006.7
20260506151740 62 0 0.0 7.0 0.05 0.05 0.05 87 1006.7
20260506151734 62 0 0.0 7.0 0.05 0.05 0.06 87 1006.7
20260506151621 62 0 0.0 7.0 0.05 0.05 0.05 87 1006.7
20260506151535 62 360 0.0 7.0 0.05 0.05 0.05 87 1006.7
20260506151412 62 0 0.0 7.0 0.05 0.05 0.05 87 1006.8
20260506151401 62 0 0.0 7.0 0.05 0.05 0.05 87 1006.8
20260506151210 62 0 0.0 7.0 0.05 0.05 0.05 87 1006.8
20260506151124 63 0 0.9 7.0 0.04 0.04 0.04 87 1006.7
20260506151119 62 0 0.0 7.0 0.04 0.04 0.04 87 1006.8
20260506151020 63 360 0.0 7.0 0.04 0.04 0.04 87 1006.7
20260506150908 63 0 0.9 7.0 0.04 0.04 0.04 87 1006.7
20260506150808 63 0 0.9 4.3 0.04 0.04 0.04 87 1006.6
20260506150752 63 0 0.9 7.0 0.04 0.04 0.04 87 1006.6
20260506150707 63 0 0.9 7.0 0.04 0.04 0.04 87 1006.6
20260506150607 63 0 0.9 7.0 0.04 0.04 0.04 87 1006.7
20260506150521 63 0 0.0 7.0 0.04 0.04 0.04 87 1006.7
20260506150515 63 0 0.0 7.0 0.04 0.04 0.04 87 1006.7
20260506150306 63 0 0.0 7.0 0.04 0.04 0.04 87 1006.6
20260506150249 63 0 0.0 7.0 0.04 0.04 0.04 87 1006.6
20260506150205 63 0 0.0 7.0 0.04 0.04 0.04 87 1006.6
20260506150120 63 0 0.0 7.0 0.04 0.04 0.04 87 1006.7
20260506150115 63 0 0.0 7.0 0.04 0.04 0.04 87 1006.6
20260506150020 63 360 0.0 7.0 0.04 0.04 0.04 87 1006.7
20260506145904 63 0 0.0 7.0 0.04 0.04 0.04 87 1006.6
20260506145822 63 0 0.0 0.9 0.03 0.03 0.03 87 1006.6
20260506145810 63 0 0.0 0.9 0.03 0.03 0.04 87 1006.6
20260506145601 63 0 0.0 0.9 0.03 0.03 0.03 86 1006.5
20260506145520 63 360 0.0 0.9 0.03 0.03 0.03 86 1006.5
20260506145501 63 0 0.0 0.9 0.03 0.03 0.03 86 1006.5
20260506145401 63 0 0.0 0.9 0.03 0.03 0.03 86 1006.5
20260506145249 63 0 0.0 0.9 0.03 0.03 0.03 86 1006.4
20260506145200 63 0 0.0 0.9 0.03 0.03 0.03 85 1006.4
20260506145113 63 0 0.0 0.9 0.03 0.03 0.03 85 1006.3
20260506145108 63 0 0.0 0.9 0.03 0.03 0.03 85 1006.4
20260506145020 63 360 0.0 0.9 0.03 0.03 0.03 85 1006.3
20260506144858 63 0 0.0 0.9 0.03 0.03 0.03 85 1006.3
20260506144747 63 0 0.0 0.0 0.03 0.03 0.03 85 1006.2
20260506144657 63 0 0.0 0.0 0.03 0.03 0.03 85 1006.3
20260506144556 63 0 0.0 0.0 0.03 0.03 0.03 85 1006.3
20260506144520 63 360 0.0 0.9 0.03 0.03 0.03 84 1006.3
20260506144455 63 0 0.0 0.9 0.03 0.03 0.03 84 1006.3
20260506144355 63 0 0.0 0.9 0.03 0.03 0.03 84 1006.3
20260506144255 63 0 0.0 1.7 0.02 0.02 0.02 84 1006.4
20260506144247 63 0 0.0 1.7 0.02 0.02 0.02 83 1006.4
20260506144154 63 0 0.0 1.7 0.02 0.02 0.02 83 1006.4
20260506144051 63 0 0.0 1.7 0.02 0.02 0.02 83 1006.4
20260506144020 64 360 0.0 1.7 0.02 0.02 0.02 83 1006.5
20260506143951 64 0 0.0 1.7 0.02 0.02 0.02 83 1006.5
20260506143850 64 0 0.0 10.4 0.02 0.02 0.02 83 1006.6
20260506143745 64 0 0.0 10.4 0.02 0.02 0.02 82 1006.6
20260506143649 64 0 0.0 10.4 0.02 0.02 0.02 82 1006.6
20260506143603 64 0 0.0 10.4 0.01 0.01 0.01 81 1006.7
20260506143558 64 0 0.0 10.4 0.02 0.02 0.02 81 1006.6
20260506143520 64 360 0.0 10.4 0.02 0.02 0.02 81 1006.7
20260506143347 64 0 0.0 10.4 0.01 0.01 0.01 81 1006.7
20260506143248 64 0 0.0 10.4 0.01 0.01 0.01 81 1006.7
20260506143147 64 0 0.0 10.4 0.01 0.01 0.01 80 1006.8
20260506143046 64 0 0.0 10.4 0.01 0.01 0.01 80 1006.7
20260506143020 64 360 0.0 10.4 0.01 0.01 0.01 80 1006.7
20260506142945 64 0 0.0 10.4 0.01 0.01 0.01 80 1006.7
20260506142843 65 0 0.0 4.3 0.01 0.01 0.01 80 1006.7
20260506142743 65 0 0.0 4.3 0.00 0.00 0.00 79 1006.7
20260506142641 65 0 0.0 4.3 0.00 0.00 0.00 79 1006.7
20260506142541 65 0 0.0 2.6 0.00 0.00 0.00 79 1006.7
20260506142520 65 360 0.0 2.6 0.00 0.00 0.00 79 1006.7
20260506142440 65 0 0.0 2.6 0.00 0.00 0.00 79 1006.7
20260506142340 65 0 0.0 3.5 0.00 0.00 0.00 79 1006.7
20260506142322 65 0 0.0 3.5 0.00 0.00 0.00 78 1006.7
20260506142310 65 0 0.0 3.5 0.00 0.00 0.00 78 1006.7
20260506142047 65 0 0.0 3.5 0.00 0.00 0.00 78 1006.8
20260506142020 65 360 0.0 3.5 0.00 0.00 0.00 78 1006.7
20260506141838 65 0 0.0 3.5 0.00 0.00 0.00 77 1006.7
20260506141738 65 0 0.0 3.5 0.00 0.00 0.00 77 1006.8
20260506141636 65 0 0.0 3.5 0.00 0.00 0.00 77 1006.7
20260506141550 66 360 0.0 3.5 0.00 0.00 0.00 76 1006.7
20260506141536 66 0 0.0 3.5 0.00 0.00 0.00 76 1006.8
20260506141435 66 0 0.0 3.5 0.00 0.00 0.00 77 1006.7
20260506141336 66 0 0.0 5.2 0.00 0.00 0.00 76 1006.6
20260506141233 66 0 0.0 9.6 0.00 0.00 0.00 76 1006.6
20260506141133 66 0 0.0 9.6 0.00 0.00 0.00 76 1006.6
20260506141033 66 0 0.0 9.6 0.00 0.00 0.00 75 1006.7
20260506141020 66 360 0.9 9.6 0.00 0.00 0.00 75 1006.7
20260506140945 66 0 0.0 9.6 0.00 0.00 0.00 75 1006.6
20260506140940 66 0 0.0 9.6 0.00 0.00 0.00 75 1006.7
20260506140730 66 0 0.0 9.6 0.00 0.00 0.00 74 1006.7
20260506140630 67 0 0.0 9.6 0.00 0.00 0.00 74 1006.6
20260506140600 67 0 0.0 6.1 0.00 0.00 0.00 73 1006.6
20260506140529 67 0 0.0 9.6 0.00 0.00 0.00 74 1006.6
20260506140520 67 360 0.0 9.6 0.00 0.00 0.00 74 1006.6
20260506140457 67 0 0.0 6.1 0.00 0.00 0.00 73 1006.6
20260506140451 67 0 0.9 9.6 0.00 0.00 0.00 73 1006.6
20260506140442 67 0 0.0 9.6 0.00 0.00 0.00 73 1006.5
20260506140126 67 0 0.0 6.1 0.00 0.00 0.00 73 1006.6
20260506140026 67 0 0.0 6.1 0.00 0.00 0.00 73 1006.5
20260506140020 67 360 0.0 6.1 0.00 0.00 0.00 73 1006.5
20260506135925 67 0 0.0 6.1 0.00 0.00 0.00 73 1006.5
20260506135824 67 0 0.0 6.1 0.00 0.00 0.00 72 1006.4
20260506135733 67 201 0.9 11.3 0.00 0.00 0.00 73 1006.2
20260506135728 67 0 0.0 6.1 0.00 0.00 0.00 72 1006.3
20260506135718 67 0 0.0 6.1 0.00 0.00 0.00 72 1006.3
20260506135605 67 0 0.9 11.3 0.00 0.00 0.00 72 1006.3
20260506135556 67 217 0.9 11.3 0.00 0.00 0.00 72 1006.3
20260506135520 67 360 0.0 11.3 0.00 0.00 0.00 72 1006.4
20260506135227 67 194 0.9 11.3 0.00 0.00 0.00 73 1006.2
20260506135059 67 212 0.9 11.3 0.00 0.00 0.00 73 1006.0
20260506135053 67 208 0.9 11.3 0.00 0.00 0.00 74 1006.1
20260506135020 67 209 0.0 11.3 0.00 0.00 0.00 74 1006.1
20260506134830 67 238 0.9 11.3 0.00 0.00 0.00 72 1006.0
20260506134822 67 188 0.9 11.3 0.00 0.00 0.00 72 1005.9
20260506134615 67 176 0.9 11.3 0.00 0.00 0.00 72 1005.8
20260506134520 67 227 5.2 8.7 0.00 0.00 0.00 72 1005.9
20260506134515 67 227 0.9 8.7 0.00 0.00 0.00 72 1005.8
20260506134414 67 194 0.9 8.7 0.00 0.00 0.00 74 1005.8
20260506134314 67 181 0.9 7.0 0.00 0.00 0.00 74 1005.7
20260506134239 67 244 0.9 7.0 0.00 0.00 0.00 74 1005.7
20260506134213 67 206 0.9 7.0 0.00 0.00 0.00 74 1005.6
20260506134112 67 202 0.9 7.0 0.00 0.00 0.00 74 1005.6
20260506134020 67 220 0.0 7.8 0.00 0.00 0.00 73 1005.7
20260506134012 67 220 0.9 7.8 0.00 0.00 0.00 73 1005.6
20260506133911 67 234 0.9 7.8 0.00 0.00 0.00 74 1005.7
20260506133738 67 205 0.9 7.8 0.00 0.00 0.00 74 1005.7
20260506133709 67 228 0.9 7.8 0.00 0.00 0.00 74 1005.9
20260506133623 66 178 0.9 10.4 0.00 0.00 0.00 74 1006.2
20260506133618 66 228 0.9 7.8 0.00 0.00 0.00 74 1006.1
20260506133550 66 178 2.6 9.6 0.00 0.00 0.00 74 1006.3
20260506133408 66 187 0.9 10.4 0.00 0.00 0.00 74 1006.2
20260506133307 66 198 0.9 10.4 0.00 0.00 0.00 74 1006.3
20260506133236 66 151 0.9 10.4 0.00 0.00 0.00 74 1006.3
20260506133207 66 232 0.9 10.4 0.00 0.00 0.00 74 1006.4
20260506133105 66 202 0.9 10.4 0.00 0.00 0.00 74 1006.4
20260506133035 66 244 0.0 9.6 0.00 0.00 0.00 74 1006.5
20260506133004 66 236 0.9 10.4 0.00 0.00 0.00 74 1006.4
20260506132903 66 170 0.0 10.4 0.00 0.00 0.00 74 1006.4
20260506132802 66 174 0.0 10.4 0.00 0.00 0.00 74 1006.5
20260506132735 66 250 0.0 10.4 0.00 0.00 0.00 74 1006.5
20260506132702 66 221 0.0 10.4 0.00 0.00 0.00 74 1006.4
20260506132602 66 190 0.0 10.4 0.00 0.00 0.00 74 1006.5
20260506132520 66 207 0.0 4.3 0.00 0.00 0.00 74 1006.5
20260506132502 66 184 0.0 4.3 0.00 0.00 0.00 74 1006.4
20260506132401 66 209 0.0 4.3 0.00 0.00 0.00 74 1006.5
20260506132328 66 227 0.0 4.3 0.00 0.00 0.00 74 1006.5
20260506132322 66 213 0.0 4.3 0.00 0.00 0.00 74 1006.5
20260506132209 66 225 0.0 4.3 0.00 0.00 0.00 74 1006.5
20260506132020 66 188 0.0 5.2 0.00 0.00 0.00 75 1006.5
20260506131959 66 188 0.9 5.2 0.00 0.00 0.00 75 1006.4
20260506131859 66 235 0.9 5.2 0.00 0.00 0.00 74 1006.3
20260506131735 66 186 0.9 13.0 0.00 0.00 0.00 74 1006.4
20260506131712 66 214 0.9 13.0 0.00 0.00 0.00 74 1006.5
20260506131706 66 209 0.9 13.0 0.00 0.00 0.00 74 1006.4
20260506131520 66 205 0.0 13.0 0.00 0.00 0.00 74 1006.5
20260506131456 66 207 0.9 13.0 0.00 0.00 0.00 74 1006.4
20260506131355 66 186 0.9 13.0 0.00 0.00 0.00 74 1006.5
20260506131255 66 242 0.9 13.0 0.00 0.00 0.00 74 1006.5
20260506131232 66 235 0.9 13.0 0.00 0.00 0.00 74 1006.5
20260506131154 66 187 0.9 13.0 0.00 0.00 0.00 74 1006.5
20260506131054 66 190 0.9 13.0 0.00 0.00 0.00 73 1006.4
20260506131020 66 207 0.0 13.0 0.00 0.00 0.00 73 1006.6
20260506130952 66 207 0.9 13.0 0.00 0.00 0.00 73 1006.5
20260506130852 66 197 0.9 13.0 0.00 0.00 0.00 74 1006.6
20260506130752 66 178 0.9 12.2 0.00 0.00 0.00 73 1006.6
20260506130732 66 194 0.9 12.2 0.00 0.00 0.00 73 1006.6
20260506130650 66 170 0.9 12.2 0.00 0.00 0.00 73 1006.6
20260506130548 67 228 0.9 12.2 0.00 0.00 0.00 73 1006.6
20260506130520 67 192 12.2 12.2 0.00 0.00 0.00 73 1006.7
20260506130448 67 204 0.9 6.1 0.00 0.00 0.00 73 1006.6
20260506130348 67 224 0.9 6.1 0.00 0.00 0.00 73 1006.7
20260506130319 67 188 0.9 6.1 0.00 0.00 0.00 72 1006.8
20260506130315 67 132 0.9 8.7 0.00 0.00 0.00 73 1006.8
20260506130310 67 210 0.9 6.1 0.00 0.00 0.00 72 1006.7
20260506130303 67 212 0.9 6.1 0.00 0.00 0.00 72 1006.7
20260506130020 67 226 5.2 8.7 0.00 0.00 0.00 72 1006.9
20260506125945 67 201 0.9 8.7 0.00 0.00 0.00 72 1006.8
20260506125846 67 188 0.9 8.7 0.00 0.00 0.00 72 1006.9
20260506125733 67 190 0.9 8.7 0.00 0.00 0.00 72 1006.8
20260506125720 67 219 0.9 9.6 0.00 0.00 0.00 72 1006.8
20260506125713 67 230 0.9 9.6 0.00 0.00 0.00 72 1006.8
20260506125520 67 215 0.0 9.6 0.00 0.00 0.00 72 1006.9
20260506125450 67 260 0.9 9.6 0.00 0.00 0.00 72 1006.8
20260506125241 67 203 0.9 9.6 0.00 0.00 0.00 72 1006.8
20260506125232 67 188 0.9 9.6 0.00 0.00 0.00 72 1006.8
20260506125140 67 176 0.9 9.6 0.00 0.00 0.00 72 1006.8
20260506125055 67 159 0.9 9.6 0.00 0.00 0.00 72 1006.8
20260506125051 67 211 0.9 9.6 0.00 0.00 0.00 72 1006.7
20260506125020 67 212 0.0 9.6 0.00 0.00 0.00 72 1006.9
20260506124841 67 236 0.9 9.6 0.00 0.00 0.00 72 1006.7
20260506124741 67 201 1.7 14.8 0.00 0.00 0.00 72 1006.7
20260506124733 67 238 1.7 14.8 0.00 0.00 0.00 72 1006.7
20260506124640 67 216 1.7 14.8 0.00 0.00 0.00 72 1006.6
20260506124540 67 238 1.7 14.8 0.00 0.00 0.00 73 1006.6
20260506124535 67 204 0.0 14.8 0.00 0.00 0.00 73 1006.7
20260506124439 67 299 1.7 14.8 0.00 0.00 0.00 72 1006.6
20260506124406 67 215 1.7 14.8 0.00 0.00 0.00 72 1006.6
20260506124252 67 159 1.7 14.8 0.00 0.00 0.00 73 1006.6
20260506124244 67 155 1.7 14.8 0.00 0.00 0.00 73 1006.6
20260506124036 66 209 1.7 14.8 0.00 0.00 0.00 73 1006.6
20260506124020 66 209 0.0 14.8 0.00 0.00 0.00 73 1006.6
20260506123957 66 221 0.9 14.8 0.00 0.00 0.00 73 1006.3
20260506123936 66 184 1.7 14.8 0.00 0.00 0.00 73 1006.5
20260506123849 66 183 0.9 14.8 0.00 0.00 0.00 73 1006.3
20260506123840 66 221 0.9 14.8 0.00 0.00 0.00 73 1006.3
20260506123634 66 189 0.9 14.8 0.00 0.00 0.00 74 1006.3
20260506123530 66 206 0.9 14.8 0.00 0.00 0.00 74 1006.3
20260506123520 66 206 0.0 14.8 0.00 0.00 0.00 73 1006.3
20260506123430 66 238 0.9 14.8 0.00 0.00 0.00 73 1006.2
20260506123332 66 203 0.0 14.8 0.00 0.00 0.00 74 1006.5
20260506123231 66 198 0.0 7.0 0.00 0.00 0.00 74 1006.5
20260506123131 66 192 0.0 7.0 0.00 0.00 0.00 74 1006.6
20260506123030 66 182 0.0 7.0 0.00 0.00 0.00 74 1006.6
20260506123021 66 192 0.0 6.1 0.00 0.00 0.00 74 1006.7
20260506122930 66 223 0.0 7.0 0.00 0.00 0.00 74 1006.6
20260506122829 66 161 0.0 7.0 0.00 0.00 0.00 74 1006.6
20260506122747 66 226 0.0 7.0 0.00 0.00 0.00 74 1006.6
20260506122737 66 195 0.0 7.0 0.00 0.00 0.00 74 1006.7
20260506122540 66 224 0.0 3.5 0.00 0.00 0.00 74 1006.7
20260506122535 66 252 0.0 6.1 0.00 0.00 0.00 74 1006.8
20260506122346 66 150 0.0 5.2 0.00 0.00 0.00 75 1006.6
20260506122342 66 151 0.0 5.2 0.00 0.00 0.00 75 1006.5
20260506122333 66 189 0.0 5.2 0.00 0.00 0.00 75 1006.6
20260506122139 65 188 0.0 5.2 0.00 0.00 0.00 74 1006.5
20260506122135 65 209 0.0 5.2 0.00 0.00 0.00 74 1006.5
20260506122035 66 213 0.0 6.1 0.00 0.00 0.00 74 1006.7
20260506121956 65 193 0.0 6.1 0.00 0.00 0.00 75 1006.6
20260506121925 65 214 0.0 6.1 0.00 0.00 0.00 75 1006.6
20260506121839 65 200 0.0 6.1 0.00 0.00 0.00 75 1006.6
20260506121724 65 194 0.0 6.1 0.00 0.00 0.00 75 1006.6
20260506121624 65 192 0.0 6.1 0.00 0.00 0.00 74 1006.6
20260506121524 65 188 0.0 7.8 0.00 0.00 0.00 74 1006.6
20260506121520 65 182 0.0 7.8 0.00 0.00 0.00 74 1006.7
20260506121503 65 187 0.0 7.8 0.00 0.00 0.00 75 1006.5
20260506121422 65 160 0.0 7.8 0.00 0.00 0.00 75 1006.6
20260506121402 65 233 0.0 7.8 0.00 0.00 0.00 75 1006.6
20260506121357 65 211 0.0 7.8 0.00 0.00 0.00 75 1006.5
20260506121352 65 166 0.0 7.8 0.00 0.00 0.00 75 1006.6
20260506121240 65 182 0.0 7.8 0.00 0.00 0.00 75 1006.5
20260506121020 65 212 2.6 7.8 0.00 0.00 0.00 75 1006.7
20260506120947 65 263 0.0 7.8 0.00 0.00 0.00 75 1006.4
20260506120917 65 213 0.0 7.8 0.00 0.00 0.00 75 1006.6
20260506120836 65 198 0.0 7.8 0.00 0.00 0.00 75 1006.5
20260506120717 65 193 0.0 7.8 0.00 0.00 0.00 75 1006.4
20260506120616 65 207 0.0 7.8 0.00 0.00 0.00 75 1006.5
20260506120520 65 177 0.0 5.2 0.00 0.00 0.00 75 1006.6
20260506120515 65 176 0.0 5.2 0.00 0.00 0.00 75 1006.5
20260506120415 65 243 0.0 5.2 0.00 0.00 0.00 75 1006.4
20260506120329 65 104 0.0 5.2 0.00 0.00 0.00 75 1006.5
20260506120320 65 192 0.0 5.2 0.00 0.00 0.00 75 1006.5
20260506120114 65 189 0.0 5.2 0.00 0.00 0.00 75 1006.6
20260506120020 65 165 0.0 5.2 0.00 0.00 0.00 75 1006.6
20260506120013 65 165 0.0 5.2 0.00 0.00 0.00 75 1006.5
20260506115911 65 171 0.0 5.2 0.00 0.00 0.00 75 1006.6
20260506115811 65 226 0.0 5.2 0.00 0.00 0.00 76 1006.5
20260506115726 65 182 0.0 5.2 0.00 0.00 0.00 76 1006.5
20260506115710 65 177 0.0 5.2 0.00 0.00 0.00 76 1006.5
20260506115610 65 171 0.0 5.2 0.00 0.00 0.00 76 1006.5
20260506115531 65 171 0.0 5.2 0.00 0.00 0.00 76 1006.5
20260506115520 65 171 0.0 5.2 0.00 0.00 0.00 76 1006.6
20260506115417 65 171 0.0 5.2 0.00 0.00 0.00 75 1006.5
20260506115227 65 176 0.0 7.0 0.00 0.00 0.00 76 1006.4
20260506115207 65 164 0.0 7.0 0.00 0.00 0.00 76 1006.4
20260506115120 65 163 0.0 7.0 0.00 0.00 0.00 76 1006.4
20260506115115 65 180 0.0 7.0 0.00 0.00 0.00 76 1006.4
20260506115035 65 163 0.0 7.0 0.00 0.00 0.00 76 1006.5
20260506114906 65 173 0.0 7.0 0.00 0.00 0.00 76 1006.5
20260506114805 65 204 0.0 7.0 0.00 0.00 0.00 76 1006.5
20260506114726 65 204 0.0 7.0 0.00 0.00 0.00 76 1006.5
20260506114705 65 180 0.0 7.0 0.00 0.00 0.00 76 1006.5
20260506114604 65 198 0.0 7.8 0.00 0.00 0.00 76 1006.5
20260506114521 65 203 0.0 7.8 0.00 0.00 0.00 76 1006.6
20260506114505 65 209 0.0 7.8 0.00 0.00 0.00 76 1006.5
20260506114400 65 138 0.0 7.8 0.00 0.00 0.00 76 1006.5
20260506114302 65 184 0.0 7.8 0.00 0.00 0.00 76 1006.5
20260506114226 65 146 0.0 7.8 0.00 0.00 0.00 76 1006.5
20260506114214 65 171 0.0 7.8 0.00 0.00 0.00 76 1006.5
20260506114210 65 177 0.0 7.8 0.00 0.00 0.00 76 1006.5
20260506114020 65 186 0.0 7.8 0.00 0.00 0.00 76 1006.5
20260506113957 65 195 0.0 7.8 0.00 0.00 0.00 76 1006.4
20260506113859 65 213 0.0 7.8 0.00 0.00 0.00 76 1006.5
20260506113817 65 186 0.0 8.7 0.00 0.00 0.00 76 1006.5
20260506113813 65 202 0.0 7.8 0.00 0.00 0.00 76 1006.5
20260506113805 65 187 0.0 7.8 0.00 0.00 0.00 76 1006.5
20260506113557 65 198 0.0 8.7 0.00 0.00 0.00 76 1006.5
20260506113550 65 197 0.0 8.7 0.00 0.00 0.00 76 1006.7
20260506113544 65 192 0.0 8.7 0.00 0.00 0.00 76 1006.5
20260506113540 65 182 0.0 8.7 0.00 0.00 0.00 76 1006.5
20260506113535 65 199 0.0 8.7 0.00 0.00 0.00 76 1006.6
20260506113415 65 127 0.0 8.7 0.00 0.00 0.00 76 1006.5
20260506113301 65 180 0.0 8.7 0.00 0.00 0.00 76 1006.5
20260506113144 65 207 0.9 8.7 0.00 0.00 0.00 76 1006.4
20260506113139 65 144 0.0 8.7 0.00 0.00 0.00 76 1006.4
20260506113025 65 143 0.0 8.7 0.00 0.00 0.00 76 1006.4
20260506113020 65 144 0.0 8.7 0.00 0.00 0.00 76 1006.5
20260506112759 65 169 0.9 8.7 0.00 0.00 0.00 76 1006.4
20260506112550 65 198 0.0 7.8 0.00 0.00 0.00 76 1006.3
20260506112520 65 200 0.0 7.8 0.00 0.00 0.00 76 1006.4
20260506112504 65 178 0.9 7.8 0.00 0.00 0.00 76 1006.3
20260506112500 65 200 0.0 7.8 0.00 0.00 0.00 76 1006.3
20260506112250 65 193 0.9 7.8 0.00 0.00 0.00 76 1006.4
20260506112224 65 165 0.9 7.8 0.00 0.00 0.00 76 1006.4
20260506112147 65 168 0.9 7.8 0.00 0.00 0.00 76 1006.4
20260506112046 65 148 0.9 7.8 0.00 0.00 0.00 76 1006.5
20260506112020 65 180 2.6 7.8 0.00 0.00 0.00 76 1006.5
20260506111946 65 186 0.9 7.8 0.00 0.00 0.00 76 1006.4
20260506111845 65 197 0.0 7.8 0.00 0.00 0.00 76 1006.4
20260506111745 65 199 0.0 6.1 0.00 0.00 0.00 76 1006.5
20260506111723 65 202 0.0 6.1 0.00 0.00 0.00 76 1006.5
20260506111644 65 206 0.0 6.1 0.00 0.00 0.00 76 1006.5
20260506111544 65 174 0.0 6.1 0.00 0.00 0.00 76 1006.5
20260506111520 65 183 2.6 6.1 0.00 0.00 0.00 76 1006.6
20260506111512 65 248 0.0 8.7 0.00 0.00 0.00 76 1006.5
20260506111507 65 151 0.0 8.7 0.00 0.00 0.00 76 1006.5
20260506111503 65 215 0.0 6.1 0.00 0.00 0.00 76 1006.5
20260506111223 65 188 0.0 8.7 0.00 0.00 0.00 76 1006.5
20260506111143 65 174 0.0 8.7 0.00 0.00 0.00 76 1006.5
20260506111100 65 167 0.0 8.7 0.00 0.00 0.00 76 1006.4
20260506111020 65 140 0.0 8.7 0.00 0.00 0.00 76 1006.5
20260506110942 65 130 0.0 8.7 0.00 0.00 0.00 76 1006.4
20260506110841 65 251 0.9 8.7 0.00 0.00 0.00 76 1006.5
20260506110830 65 157 0.9 8.7 0.00 0.00 0.00 76 1006.5
20260506110652 65 176 0.9 8.7 0.00 0.00 0.00 76 1006.4
20260506110648 65 225 0.9 8.7 0.00 0.00 0.00 76 1006.4
20260506110520 65 196 0.0 8.7 0.00 0.00 0.00 76 1006.5
20260506110438 65 132 0.9 8.7 0.00 0.00 0.00 76 1006.4
20260506110337 65 186 0.9 8.7 0.00 0.00 0.00 76 1006.3
20260506110254 65 192 0.9 11.3 0.00 0.00 0.00 76 1006.3
20260506110250 65 218 0.9 11.3 0.00 0.00 0.00 76 1006.3
20260506110242 65 191 0.9 11.3 0.00 0.00 0.00 76 1006.3
20260506110036 65 190 0.9 11.3 0.00 0.00 0.00 76 1006.3
20260506110020 65 169 0.0 11.3 0.00 0.00 0.00 76 1006.3
20260506105947 65 174 0.9 13.0 0.00 0.00 0.00 76 1006.2
20260506105942 65 170 0.9 11.3 0.00 0.00 0.00 76 1006.2
20260506105718 65 182 0.9 13.0 0.00 0.00 0.00 76 1006.2
20260506105644 65 175 1.7 13.0 0.00 0.00 0.00 77 1006.3
20260506105640 65 200 0.9 13.0 0.00 0.00 0.00 76 1006.2
20260506105520 65 176 7.8 12.2 0.00 0.00 0.00 77 1006.4
20260506105429 65 242 0.9 13.0 0.00 0.00 0.00 76 1006.3
20260506105327 65 175 0.9 13.0 0.00 0.00 0.00 76 1006.3
20260506105228 64 192 0.9 13.0 0.00 0.00 0.00 76 1006.4
20260506105221 64 190 0.9 13.0 0.00 0.00 0.00 76 1006.4
20260506105126 64 173 0.9 13.0 0.00 0.00 0.00 76 1006.4
20260506105035 64 171 0.9 12.2 0.00 0.00 0.00 76 1006.5
20260506105024 64 171 0.9 13.0 0.00 0.00 0.00 76 1006.4
20260506104923 64 152 0.9 13.0 0.00 0.00 0.00 76 1006.4
20260506104822 64 242 0.9 12.2 0.00 0.00 0.00 77 1006.4
20260506104724 64 192 0.9 7.0 0.00 0.00 0.00 77 1006.3
20260506104718 64 181 0.9 7.0 0.00 0.00 0.00 77 1006.3
20260506104621 64 181 0.9 7.8 0.00 0.00 0.00 76 1006.3
20260506104520 64 146 0.0 7.8 0.00 0.00 0.00 77 1006.4
20260506104433 64 161 0.9 10.4 0.00 0.00 0.00 77 1006.4
20260506104429 64 207 0.9 10.4 0.00 0.00 0.00 77 1006.4
20260506104424 64 159 0.9 10.4 0.00 0.00 0.00 77 1006.3
20260506104420 64 138 0.0 7.8 0.00 0.00 0.00 77 1006.3
20260506104411 64 189 0.0 7.8 0.00 0.00 0.00 77 1006.3
20260506104258 64 161 0.9 10.4 0.00 0.00 0.00 77 1006.4
20260506104143 64 162 0.9 10.4 0.00 0.00 0.00 77 1006.4
20260506104050 64 167 0.0 7.8 0.00 0.00 0.00 77 1006.4
20260506103719 64 148 0.9 10.4 0.00 0.00 0.00 76 1006.3
20260506103714 64 146 0.9 10.4 0.00 0.00 0.00 76 1006.3
20260506103615 65 161 0.9 10.4 0.00 0.00 0.00 76 1006.3
20260506103600 65 153 0.9 10.4 0.00 0.00 0.00 76 1006.3
20260506103535 65 154 0.0 8.7 0.00 0.00 0.00 76 1006.4
20260506103414 65 199 0.9 10.4 0.00 0.00 0.00 76 1006.3
20260506103342 65 159 0.0 9.6 0.00 0.00 0.00 76 1006.3
20260506103336 65 175 0.9 10.4 0.00 0.00 0.00 76 1006.4
20260506103221 65 164 0.9 9.6 0.00 0.00 0.00 76 1006.4
20260506103021 65 84 0.0 8.7 0.00 0.00 0.00 76 1006.5
20260506103013 65 84 0.0 9.6 0.00 0.00 0.00 76 1006.4
20260506102911 65 189 0.0 9.6 0.00 0.00 0.00 76 1006.4
20260506102811 65 134 0.9 9.6 0.00 0.00 0.00 76 1006.3
20260506102755 65 190 0.9 9.6 0.00 0.00 0.00 76 1006.3
20260506102751 65 186 0.9 9.6 0.00 0.00 0.00 76 1006.3
20260506102746 65 256 0.9 9.6 0.00 0.00 0.00 76 1006.3
20260506102740 65 256 0.9 9.6 0.00 0.00 0.00 76 1006.4
20260506102520 65 167 0.0 9.6 0.00 0.00 0.00 76 1006.4
20260506102517 65 162 0.9 9.6 0.00 0.00 0.00 76 1006.3
20260506102322 65 188 0.0 9.6 0.00 0.00 0.00 76 1006.2
20260506102206 65 156 0.0 9.6 0.00 0.00 0.00 76 1006.2
20260506102127 65 165 0.0 9.6 0.00 0.00 0.00 76 1006.2
20260506102020 65 164 0.0 9.6 0.00 0.00 0.00 76 1006.3
20260506102014 65 163 0.9 9.6 0.00 0.00 0.00 76 1006.2
20260506101818 65 175 0.9 13.0 0.00 0.00 0.00 76 1006.3
20260506101809 65 192 0.9 13.0 0.00 0.00 0.00 76 1006.3
20260506101603 65 172 0.9 13.0 0.00 0.00 0.00 76 1006.3
20260506101520 65 160 0.0 13.0 0.00 0.00 0.00 76 1006.4
20260506101503 65 184 0.9 13.0 0.00 0.00 0.00 76 1006.3
20260506101403 65 150 0.9 13.0 0.00 0.00 0.00 76 1006.3
20260506101302 65 152 0.9 13.0 0.00 0.00 0.00 76 1006.3
20260506101211 65 189 0.9 13.0 0.00 0.00 0.00 76 1006.3
20260506101201 65 228 0.9 13.0 0.00 0.00 0.00 76 1006.3
20260506101101 65 198 0.9 13.0 0.00 0.00 0.00 76 1006.2
20260506101020 65 162 0.0 13.0 0.00 0.00 0.00 76 1006.3
20260506101000 65 161 0.9 13.0 0.00 0.00 0.00 76 1006.2
20260506100858 65 159 0.9 13.0 0.00 0.00 0.00 76 1006.2
20260506100759 65 158 0.9 10.4 0.00 0.00 0.00 76 1006.2
20260506100719 65 184 0.9 10.4 0.00 0.00 0.00 76 1006.3
20260506100714 65 155 0.9 10.4 0.00 0.00 0.00 76 1006.2
20260506100709 65 188 0.9 10.4 0.00 0.00 0.00 76 1006.2
20260506100659 65 168 0.9 10.4 0.00 0.00 0.00 76 1006.2
20260506100535 65 169 0.9 10.4 0.00 0.00 0.00 76 1006.4
20260506100357 65 0 0.9 7.8 0.00 0.00 0.00 76 1006.3
20260506100320 65 209 0.9 7.8 0.00 0.00 0.00 76 1006.3
20260506100156 65 173 0.9 8.7 0.00 0.00 0.00 76 1006.3
20260506100056 65 148 0.9 8.7 0.00 0.00 0.00 76 1006.3
20260506100020 65 156 0.0 7.8 0.00 0.00 0.00 76 1006.4
20260506095954 65 185 0.9 8.7 0.00 0.00 0.00 76 1006.3
20260506095853 65 175 0.9 8.7 0.00 0.00 0.00 76 1006.3
20260506095752 65 209 0.9 8.7 0.00 0.00 0.00 76 1006.3
20260506095712 65 164 0.9 8.7 0.00 0.00 0.00 76 1006.3
20260506095651 65 167 0.9 8.7 0.00 0.00 0.00 76 1006.3
20260506095551 65 184 0.9 12.2 0.00 0.00 0.00 76 1006.3
20260506095520 65 167 0.0 12.2 0.00 0.00 0.00 76 1006.4
20260506095450 65 179 0.9 12.2 0.00 0.00 0.00 76 1006.3
20260506095349 65 144 0.9 12.2 0.00 0.00 0.00 76 1006.3
20260506095249 65 203 0.9 12.2 0.00 0.00 0.00 76 1006.3
20260506095212 65 139 0.9 12.2 0.00 0.00 0.00 76 1006.3
20260506095148 65 180 0.9 12.2 0.00 0.00 0.00 76 1006.3
20260506095048 65 186 0.9 12.2 0.00 0.00 0.00 76 1006.3
20260506095020 65 182 0.0 12.2 0.00 0.00 0.00 76 1006.5
20260506094947 65 217 0.9 12.2 0.00 0.00 0.00 76 1006.4
20260506094847 65 171 0.9 12.2 0.00 0.00 0.00 76 1006.3
20260506094745 65 150 0.9 12.2 0.00 0.00 0.00 75 1006.3
20260506094711 65 203 0.9 12.2 0.00 0.00 0.00 75 1006.3
20260506094645 65 167 0.9 12.2 0.00 0.00 0.00 75 1006.3
20260506094543 65 176 0.0 7.0 0.00 0.00 0.00 75 1006.4
20260506094520 65 173 0.0 4.3 0.00 0.00 0.00 75 1006.4
20260506094443 65 173 0.0 7.0 0.00 0.00 0.00 75 1006.3
20260506094342 65 121 0.0 7.0 0.00 0.00 0.00 75 1006.3
20260506094242 65 199 0.0 7.0 0.00 0.00 0.00 75 1006.3
20260506094209 65 209 0.0 7.0 0.00 0.00 0.00 75 1006.2
20260506094140 65 212 0.0 7.0 0.00 0.00 0.00 75 1006.2
20260506094039 65 188 0.0 7.0 0.00 0.00 0.00 75 1006.2
20260506094021 65 165 0.0 7.0 0.00 0.00 0.00 75 1006.2
20260506094015 65 174 0.0 7.0 0.00 0.00 0.00 75 1006.2
20260506093902 65 182 0.0 7.0 0.00 0.00 0.00 75 1006.3
20260506093744 65 173 0.0 7.0 0.00 0.00 0.00 75 1006.2
20260506093537 65 203 0.0 6.1 0.00 0.00 0.00 75 1006.2
20260506093520 65 198 0.0 6.1 0.00 0.00 0.00 75 1006.3
20260506093437 65 197 0.0 6.1 0.00 0.00 0.00 75 1006.2
20260506093336 65 195 0.0 6.1 0.00 0.00 0.00 75 1006.1
20260506093234 65 146 0.0 6.1 0.00 0.00 0.00 75 1006.2
20260506093208 65 0 0.0 6.1 0.00 0.00 0.00 75 1006.2
20260506093133 65 189 0.0 6.1 0.00 0.00 0.00 75 1006.2
20260506093033 65 176 0.9 6.1 0.00 0.00 0.00 75 1006.2
20260506093021 65 178 0.0 6.1 0.00 0.00 0.00 75 1006.3
20260506092932 65 184 0.9 6.1 0.00 0.00 0.00 75 1006.2
20260506092831 65 165 0.9 9.6 0.00 0.00 0.00 75 1006.1
20260506092730 65 147 0.9 9.6 0.00 0.00 0.00 75 1006.2
20260506092707 65 181 0.9 9.6 0.00 0.00 0.00 75 1006.2
20260506092629 65 199 0.9 9.6 0.00 0.00 0.00 75 1006.2
20260506092543 65 182 0.9 9.6 0.00 0.00 0.00 75 1006.2
20260506092539 65 201 0.9 9.6 0.00 0.00 0.00 75 1006.2
20260506092520 66 203 0.0 9.6 0.00 0.00 0.00 75 1006.3
20260506092329 66 185 0.9 9.6 0.00 0.00 0.00 75 1006.2
20260506092256 66 192 0.9 9.6 0.00 0.00 0.00 74 1006.2
20260506092248 66 194 0.9 9.6 0.00 0.00 0.00 74 1006.2
20260506092138 66 240 0.9 9.6 0.00 0.00 0.00 74 1006.2
20260506092020 66 152 0.0 9.6 0.00 0.00 0.00 74 1006.2
20260506091928 66 174 0.9 9.6 0.00 0.00 0.00 74 1006.1
20260506091828 66 148 0.9 7.8 0.00 0.00 0.00 74 1006.2
20260506091726 66 193 0.9 7.8 0.00 0.00 0.00 74 1006.2
20260506091706 66 177 0.9 7.8 0.00 0.00 0.00 74 1006.2
20260506091626 66 154 0.9 7.8 0.00 0.00 0.00 74 1006.2
20260506091525 66 185 0.9 7.8 0.00 0.00 0.00 74 1006.2
20260506091520 66 161 0.0 7.8 0.00 0.00 0.00 74 1006.3
20260506091438 66 163 0.0 4.3 0.00 0.00 0.00 74 1006.2
20260506091434 66 177 0.0 7.8 0.00 0.00 0.00 74 1006.2
20260506091224 66 167 0.0 4.3 0.00 0.00 0.00 74 1006.2
20260506091207 66 155 0.0 2.6 0.00 0.00 0.00 74 1006.3
20260506091136 66 189 0.0 4.3 0.00 0.00 0.00 74 1006.3
20260506091132 66 145 0.0 0.9 0.00 0.00 0.00 74 1006.3
20260506091020 66 205 0.0 4.3 0.00 0.00 0.00 74 1006.3
20260506090922 66 140 0.0 4.3 0.00 0.00 0.00 74 1006.2
20260506090821 66 169 0.0 4.3 0.00 0.00 0.00 74 1006.3
20260506090720 66 128 0.0 7.0 0.00 0.00 0.00 74 1006.3
20260506090708 66 0 0.0 7.0 0.00 0.00 0.00 74 1006.3
20260506090620 66 180 0.0 7.0 0.00 0.00 0.00 74 1006.3
20260506090531 66 153 0.0 7.0 0.00 0.00 0.00 74 1006.3
20260506090527 66 159 0.0 7.0 0.00 0.00 0.00 74 1006.2
20260506090520 66 159 0.0 7.0 0.00 0.00 0.00 74 1006.4
20260506090317 66 189 0.0 7.0 0.00 0.00 0.00 74 1006.2
20260506090241 66 169 0.0 7.0 0.00 0.00 0.00 74 1006.2
20260506090235 66 169 0.0 7.0 0.00 0.00 0.00 74 1006.3
20260506090123 66 198 0.0 7.0 0.00 0.00 0.00 74 1006.3
20260506090020 66 182 0.9 7.0 0.00 0.00 0.00 74 1006.3
20260506085911 66 131 0.0 7.0 0.00 0.00 0.00 74 1006.3
20260506085811 66 190 0.0 7.0 0.00 0.00 0.00 74 1006.4
20260506085713 66 186 0.0 5.2 0.00 0.00 0.00 74 1006.3
20260506085707 66 189 0.0 5.2 0.00 0.00 0.00 74 1006.3
20260506085611 66 173 0.0 13.9 0.00 0.00 0.00 74 1006.3
20260506085520 66 151 0.0 7.0 0.00 0.00 0.00 74 1006.5
20260506085509 66 132 0.0 13.9 0.00 0.00 0.00 74 1006.4
20260506085409 66 177 0.9 13.9 0.00 0.00 0.00 73 1006.3
20260506085327 66 195 0.9 13.9 0.00 0.00 0.00 73 1006.3
20260506085321 66 177 0.9 13.9 0.00 0.00 0.00 73 1006.3
20260506085205 66 195 0.9 13.9 0.00 0.00 0.00 73 1006.3
20260506085107 66 138 0.9 13.9 0.00 0.00 0.00 73 1006.3
20260506085020 66 180 0.0 13.0 0.00 0.00 0.00 73 1006.4
20260506085007 66 170 0.9 13.9 0.00 0.00 0.00 73 1006.3
20260506084930 66 132 1.7 13.9 0.00 0.00 0.00 73 1006.3
20260506084907 66 155 0.9 13.9 0.00 0.00 0.00 73 1006.3
20260506084820 66 161 0.9 13.9 0.00 0.00 0.00 73 1006.3
20260506084705 66 144 1.7 13.9 0.00 0.00 0.00 73 1006.3
20260506084627 66 224 1.7 13.9 0.00 0.00 0.00 73 1006.2
20260506084535 66 165 0.0 13.9 0.00 0.00 0.00 73 1006.4
20260506084514 66 165 1.7 13.9 0.00 0.00 0.00 73 1006.3
20260506084304 66 148 1.7 13.9 0.00 0.00 0.00 73 1006.3
20260506084209 66 180 1.7 17.4 0.00 0.00 0.00 73 1006.2
20260506084204 66 168 1.7 17.4 0.00 0.00 0.00 73 1006.2
20260506084102 66 185 0.9 17.4 0.00 0.00 0.00 73 1006.3
20260506084035 66 196 0.0 17.4 0.00 0.00 0.00 73 1006.4
20260506084003 66 186 0.9 17.4 0.00 0.00 0.00 73 1006.3
20260506083902 66 175 1.7 17.4 0.00 0.00 0.00 73 1006.3
20260506083801 66 219 1.7 17.4 0.00 0.00 0.00 73 1006.3
20260506083733 66 182 0.9 17.4 0.00 0.00 0.00 73 1006.3
20260506083729 66 184 1.7 17.4 0.00 0.00 0.00 73 1006.3
20260506083724 66 191 0.9 17.4 0.00 0.00 0.00 73 1006.4
20260506083718 66 223 0.9 17.4 0.00 0.00 0.00 73 1006.4
20260506083520 66 192 0.0 17.4 0.00 0.00 0.00 73 1006.4
20260506083437 66 173 0.9 10.4 0.00 0.00 0.00 73 1006.4
20260506083359 66 192 1.7 17.4 0.00 0.00 0.00 73 1006.4
20260506083315 66 188 0.9 17.4 0.00 0.00 0.00 73 1006.4
20260506083158 66 173 0.9 10.4 0.00 0.00 0.00 73 1006.4
20260506083058 66 177 0.9 10.4 0.00 0.00 0.00 73 1006.3
20260506083020 66 192 0.0 9.6 0.00 0.00 0.00 73 1006.4
20260506082957 66 188 0.9 10.4 0.00 0.00 0.00 73 1006.3
20260506082856 66 172 0.9 10.4 0.00 0.00 0.00 73 1006.3
20260506082755 66 169 0.9 10.4 0.00 0.00 0.00 73 1006.3
20260506082714 66 136 0.9 10.4 0.00 0.00 0.00 73 1006.3
20260506082710 66 186 0.9 10.4 0.00 0.00 0.00 73 1006.3
20260506082703 66 188 0.9 10.4 0.00 0.00 0.00 73 1006.3
20260506082520 66 159 0.0 9.6 0.00 0.00 0.00 73 1006.4
20260506082454 66 170 0.9 10.4 0.00 0.00 0.00 73 1006.3
20260506082352 66 180 0.9 7.8 0.00 0.00 0.00 73 1006.3
20260506082252 66 158 0.0 7.8 0.00 0.00 0.00 73 1006.3
20260506082204 66 180 0.0 7.8 0.00 0.00 0.00 73 1006.2
20260506082152 66 188 0.0 6.1 0.00 0.00 0.00 73 1006.2
20260506082118 66 152 0.0 7.0 0.00 0.00 0.00 73 1006.3
20260506082020 66 148 5.2 7.0 0.00 0.00 0.00 73 1006.3
20260506082006 66 175 0.9 8.7 0.00 0.00 0.00 73 1006.3
20260506082000 66 163 0.9 7.0 0.00 0.00 0.00 73 1006.2
20260506081811 66 170 0.9 8.7 0.00 0.00 0.00 73 1006.3
20260506081649 66 170 0.9 8.7 0.00 0.00 0.00 73 1006.3
20260506081615 66 196 0.9 8.7 0.00 0.00 0.00 73 1006.3
20260506081611 66 184 0.9 8.7 0.00 0.00 0.00 73 1006.3
20260506081606 66 191 0.9 8.7 0.00 0.00 0.00 73 1006.3
20260506081520 66 153 0.0 8.7 0.00 0.00 0.00 73 1006.4
20260506081307 66 128 0.9 8.7 0.00 0.00 0.00 73 1006.4
20260506081301 66 196 0.9 8.7 0.00 0.00 0.00 73 1006.3
20260506081253 66 178 0.9 8.7 0.00 0.00 0.00 73 1006.4
20260506081045 66 172 0.9 8.7 0.00 0.00 0.00 73 1006.4
20260506081035 66 169 0.0 8.7 0.00 0.00 0.00 73 1006.5
20260506080945 66 176 0.0 8.7 0.00 0.00 0.00 73 1006.4
20260506080844 66 167 0.0 4.3 0.00 0.00 0.00 73 1006.4
20260506080803 66 155 0.9 8.7 0.00 0.00 0.00 73 1006.4
20260506080757 66 195 0.0 4.3 0.00 0.00 0.00 73 1006.4
20260506080749 66 158 0.9 7.8 0.00 0.00 0.00 73 1006.4
20260506080542 66 173 0.9 8.7 0.00 0.00 0.00 73 1006.4
20260506080520 66 175 0.0 8.7 0.00 0.00 0.00 73 1006.5
20260506080442 66 175 0.9 8.7 0.00 0.00 0.00 73 1006.4
20260506080424 66 179 0.9 12.2 0.00 0.00 0.00 73 1006.5
20260506080342 66 170 0.9 12.2 0.00 0.00 0.00 73 1006.4
20260506080310 66 196 0.9 12.2 0.00 0.00 0.00 73 1006.4
20260506080154 66 176 0.9 12.2 0.00 0.00 0.00 72 1006.4
20260506080149 66 155 0.9 12.2 0.00 0.00 0.00 73 1006.5
20260506073525 67 192 0.9 9.6 0.00 0.00 0.00 71 1006.6
20260506073521 67 360 0.0 9.6 0.00 0.00 0.00 71 1006.7
20260506073423 67 191 0.9 9.6 0.00 0.00 0.00 71 1006.6
20260506073323 67 138 0.9 9.6 0.00 0.00 0.00 71 1006.6
20260506073223 67 175 0.9 9.6 0.00 0.00 0.00 71 1006.6
20260506073200 67 177 0.9 9.6 0.00 0.00 0.00 71 1006.6
20260506073122 67 193 0.9 9.6 0.00 0.00 0.00 71 1006.6
20260506073049 67 154 0.0 9.6 0.00 0.00 0.00 71 1006.7
20260506073021 67 154 0.9 9.6 0.00 0.00 0.00 71 1006.6
20260506072943 67 138 0.9 9.6 0.00 0.00 0.00 71 1006.6
20260506072830 67 197 0.9 9.6 0.00 0.00 0.00 71 1006.6
20260506072657 67 171 0.9 9.6 0.00 0.00 0.00 71 1006.6
20260506072619 67 196 0.9 9.6 0.00 0.00 0.00 71 1006.6
20260506072604 67 169 0.0 8.7 0.00 0.00 0.00 71 1006.7
20260506072518 67 155 0.9 8.7 0.00 0.00 0.00 71 1006.6
20260506072417 67 190 0.9 8.7 0.00 0.00 0.00 71 1006.6
20260506072317 67 194 0.9 8.7 0.00 0.00 0.00 71 1006.6
20260506072216 67 181 0.9 8.7 0.00 0.00 0.00 71 1006.6
20260506072157 67 192 0.9 8.7 0.00 0.00 0.00 70 1006.6
20260506072115 67 192 0.9 8.7 0.00 0.00 0.00 70 1006.6
20260506072019 67 184 0.0 8.7 0.00 0.00 0.00 70 1006.7
20260506072014 67 182 0.9 8.7 0.00 0.00 0.00 70 1006.6
20260506071913 67 0 0.9 8.7 0.00 0.00 0.00 70 1006.6
20260506071813 67 157 0.9 8.7 0.00 0.00 0.00 70 1006.6
20260506071733 67 206 0.9 8.7 0.00 0.00 0.00 70 1006.7
20260506071727 67 155 0.9 8.7 0.00 0.00 0.00 70 1006.6
20260506071720 67 171 0.9 8.7 0.00 0.00 0.00 70 1006.6
20260506071520 67 180 0.0 8.7 0.00 0.00 0.00 70 1006.7
20260506071511 67 180 0.9 8.7 0.00 0.00 0.00 70 1006.6
20260506071411 67 0 0.9 8.7 0.00 0.00 0.00 70 1006.6
20260506071310 67 172 0.9 8.7 0.00 0.00 0.00 70 1006.6
20260506071209 67 153 0.9 8.7 0.00 0.00 0.00 70 1006.7
20260506071154 67 175 0.9 8.7 0.00 0.00 0.00 70 1006.7
20260506071110 67 176 0.9 8.7 0.00 0.00 0.00 70 1006.6
20260506071023 67 187 0.0 8.7 0.00 0.00 0.00 70 1006.6
20260506071019 67 182 0.0 8.7 0.00 0.00 0.00 69 1006.8
20260506070807 67 182 0.0 7.0 0.00 0.00 0.00 69 1006.7
20260506070707 67 162 0.0 7.0 0.00 0.00 0.00 69 1006.6
20260506070654 67 161 0.0 7.0 0.00 0.00 0.00 69 1006.6
20260506070606 67 214 0.0 7.0 0.00 0.00 0.00 69 1006.6
20260506070520 67 165 0.0 7.0 0.00 0.00 0.00 69 1006.7
20260506070506 67 167 0.0 7.0 0.00 0.00 0.00 69 1006.6
20260506070406 67 199 0.9 8.7 0.00 0.00 0.00 69 1006.6
20260506070304 67 0 0.9 8.7 0.00 0.00 0.00 69 1006.7
20260506070204 67 232 0.9 8.7 0.00 0.00 0.00 69 1006.7
20260506070154 67 180 0.9 8.7 0.00 0.00 0.00 69 1006.7
20260506070104 67 159 0.9 8.7 0.00 0.00 0.00 69 1006.7
20260506062436 68 200 0.0 7.8 0.00 0.00 0.00 67 1007.1
20260506062335 68 193 0.0 7.0 0.00 0.00 0.00 67 1007.1
20260506062235 68 190 0.0 7.0 0.00 0.00 0.00 67 1007.1
20260506062154 68 200 0.0 7.0 0.00 0.00 0.00 67 1007.1
20260506062148 68 185 0.0 7.0 0.00 0.00 0.00 67 1007.1
20260506062143 68 206 0.0 7.0 0.00 0.00 0.00 67 1007.1
20260506062019 68 180 0.0 7.0 0.00 0.00 0.00 67 1007.3
20260506061933 68 187 0.0 7.0 0.00 0.00 0.00 67 1007.1
20260506061832 68 234 0.0 7.0 0.00 0.00 0.00 67 1007.1
20260506061736 68 182 0.0 3.5 0.00 0.00 0.00 67 1007.1
20260506061731 68 144 0.0 7.0 0.00 0.00 0.00 67 1007.1
20260506061724 68 188 0.0 3.5 0.00 0.00 0.00 67 1007.1
20260506061720 68 175 0.0 3.5 0.00 0.00 0.00 67 1007.0
20260506061716 68 184 0.0 3.5 0.00 0.00 0.00 67 1007.1
20260506061711 68 211 0.0 7.0 0.00 0.00 0.00 67 1007.1
20260506061704 68 164 0.0 7.0 0.00 0.00 0.00 67 1007.1
20260506061520 68 190 0.0 3.5 0.00 0.00 0.00 67 1007.3
20260506061148 68 197 0.0 3.5 0.00 0.00 0.00 67 1007.1
20260506061126 68 184 0.0 3.5 0.00 0.00 0.00 67 1007.1
20260506061026 68 150 0.0 3.5 0.00 0.00 0.00 67 1007.1
20260506061020 68 136 0.0 5.2 0.00 0.00 0.00 67 1007.3
20260506060925 68 206 0.0 5.2 0.00 0.00 0.00 67 1007.1
20260506060825 68 190 0.0 7.8 0.00 0.00 0.00 67 1007.1
20260506060743 68 186 0.0 12.2 0.00 0.00 0.00 67 1007.0
20260506060737 68 174 0.0 12.2 0.00 0.00 0.00 67 1007.0
20260506060729 68 194 0.0 12.2 0.00 0.00 0.00 67 1007.0
20260506060523 68 144 0.0 12.2 0.00 0.00 0.00 67 1007.0
20260506060520 68 170 0.0 12.2 0.00 0.00 0.00 67 1007.4
20260506060423 68 166 0.0 12.2 0.00 0.00 0.00 67 1007.2
20260506060322 68 150 0.0 12.2 0.00 0.00 0.00 67 1007.1
20260506060241 68 182 0.0 12.2 0.00 0.00 0.00 67 1007.1
20260506060236 68 193 0.0 12.2 0.00 0.00 0.00 67 1007.1
20260506060228 68 199 0.0 12.2 0.00 0.00 0.00 67 1007.1
20260506051355 68 150 0.9 9.6 0.00 0.00 0.00 64 1007.5
20260506051255 68 134 0.9 9.6 0.00 0.00 0.00 64 1007.4
20260506051154 68 175 0.9 9.6 0.00 0.00 0.00 64 1007.5
20260506051140 68 179 0.9 9.6 0.00 0.00 0.00 64 1007.5
20260506051054 68 156 0.9 9.6 0.00 0.00 0.00 64 1007.5
20260506051020 68 201 0.0 9.6 0.00 0.00 0.00 64 1007.7
20260506051015 68 206 0.9 9.6 0.00 0.00 0.00 64 1007.5
20260506050902 68 187 0.9 9.6 0.00 0.00 0.00 64 1007.5
20260506050652 68 185 0.9 9.6 0.00 0.00 0.00 64 1007.5
20260506050640 68 179 0.9 9.6 0.00 0.00 0.00 64 1007.5
20260506050618 68 193 0.9 7.8 0.00 0.00 0.00 64 1007.5
20260506050613 68 191 0.9 8.7 0.00 0.00 0.00 64 1007.4
20260506050609 68 202 0.9 9.6 0.00 0.00 0.00 64 1007.5
20260506050520 68 175 0.0 9.6 0.00 0.00 0.00 64 1007.7
20260506050250 68 138 0.9 8.7 0.00 0.00 0.00 64 1007.5
20260506050206 68 188 0.9 8.7 0.00 0.00 0.00 63 1007.5
20260506050202 68 186 0.9 8.7 0.00 0.00 0.00 63 1007.5
20260506050154 68 190 0.9 8.7 0.00 0.00 0.00 63 1007.5
20260506045041 69 181 0.9 19.1 0.00 0.00 0.00 63 1007.5
20260506045035 68 165 8.7 18.2 0.00 0.00 0.00 63 1007.7
20260506044940 69 157 0.9 19.1 0.00 0.00 0.00 63 1007.5
20260506044856 69 149 0.9 10.4 0.00 0.00 0.00 63 1007.5
20260506044839 69 165 0.9 10.4 0.00 0.00 0.00 63 1007.5
20260506044751 69 188 0.9 10.4 0.00 0.00 0.00 63 1007.5
20260506044742 69 149 0.9 10.4 0.00 0.00 0.00 63 1007.5
20260506044551 69 196 0.9 10.4 0.00 0.00 0.00 63 1007.6
20260506044547 69 157 0.9 10.4 0.00 0.00 0.00 63 1007.6
20260506044520 69 194 0.0 10.4 0.00 0.00 0.00 63 1007.8
20260506044337 69 184 0.9 10.4 0.00 0.00 0.00 63 1007.6
20260506044236 69 181 0.9 10.4 0.00 0.00 0.00 63 1007.6
20260506044154 69 178 0.9 10.4 0.00 0.00 0.00 62 1007.6
20260506044146 69 194 0.9 10.4 0.00 0.00 0.00 63 1007.6
20260506044020 69 186 0.0 10.4 0.00 0.00 0.00 62 1007.8
20260506043936 69 175 0.9 10.4 0.00 0.00 0.00 62 1007.6
20260506043835 69 205 0.9 9.6 0.00 0.00 0.00 62 1007.6
20260506043735 69 161 0.9 9.6 0.00 0.00 0.00 62 1007.6
20260506043638 69 179 0.9 9.6 0.00 0.00 0.00 62 1007.5
20260506043632 69 171 0.9 9.6 0.00 0.00 0.00 62 1007.5
20260506043532 69 165 1.7 9.6 0.00 0.00 0.00 62 1007.6
20260506043520 69 144 0.9 10.4 0.00 0.00 0.00 62 1007.8
20260506043431 69 194 0.9 10.4 0.00 0.00 0.00 62 1007.6
20260506043331 69 165 1.7 10.4 0.00 0.00 0.00 62 1007.6
20260506043244 69 209 1.7 10.4 0.00 0.00 0.00 62 1007.6
20260506043235 69 178 1.7 10.4 0.00 0.00 0.00 62 1007.6
20260506043029 69 157 1.7 10.4 0.00 0.00 0.00 62 1007.6
20260506043020 69 165 0.0 10.4 0.00 0.00 0.00 62 1007.8
20260506042928 69 176 1.7 10.4 0.00 0.00 0.00 62 1007.6
20260506042827 69 124 1.7 10.4 0.00 0.00 0.00 62 1007.5
20260506042727 69 204 1.7 10.4 0.00 0.00 0.00 62 1007.6
20260506042633 69 155 1.7 10.4 0.00 0.00 0.00 62 1007.5
20260506042626 69 193 1.7 10.4 0.00 0.00 0.00 62 1007.5
20260506042526 69 146 0.9 10.4 0.00 0.00 0.00 62 1007.6
20260506042520 69 182 0.0 10.4 0.00 0.00 0.00 62 1007.8
20260506042437 69 222 0.9 10.4 0.00 0.00 0.00 62 1007.5
20260506042433 69 193 0.9 10.4 0.00 0.00 0.00 62 1007.6
20260506042223 69 193 0.9 10.4 0.00 0.00 0.00 62 1007.5
20260506042132 69 159 0.9 10.4 0.00 0.00 0.00 62 1007.5
20260506042122 69 146 0.9 10.4 0.00 0.00 0.00 62 1007.5
20260506042022 69 157 0.9 9.6 0.00 0.00 0.00 62 1007.6
20260506042020 69 176 0.0 9.6 0.00 0.00 0.00 62 1007.7
20260506042003 69 182 0.9 11.3 0.00 0.00 0.00 62 1007.5
20260506041958 69 150 0.9 9.6 0.00 0.00 0.00 62 1007.5
20260506041845 69 173 0.9 9.6 0.00 0.00 0.00 62 1007.5
20260506041835 69 179 0.9 11.3 0.00 0.00 0.00 62 1007.6
20260506041520 69 163 0.0 11.3 0.00 0.00 0.00 62 1007.7
20260506041420 69 180 0.9 11.3 0.00 0.00 0.00 62 1007.5
20260506041403 69 182 1.7 11.3 0.00 0.00 0.00 62 1007.5
20260506041319 69 190 0.9 11.3 0.00 0.00 0.00 62 1007.5
20260506041241 69 155 0.9 11.3 0.00 0.00 0.00 62 1007.5
20260506041118 69 178 1.7 11.3 0.00 0.00 0.00 62 1007.5
20260506041020 69 142 0.0 11.3 0.00 0.00 0.00 62 1007.6
20260506041018 69 171 1.7 11.3 0.00 0.00 0.00 62 1007.5
20260506040917 69 160 1.7 11.3 0.00 0.00 0.00 62 1007.4
20260506040844 69 217 0.9 11.3 0.00 0.00 0.00 62 1007.6
20260506040730 69 166 0.9 7.8 0.00 0.00 0.00 62 1007.5
20260506040722 69 140 0.9 7.8 0.00 0.00 0.00 62 1007.5
20260506040535 69 168 0.0 7.8 0.00 0.00 0.00 62 1007.7
20260506040515 69 197 0.9 7.8 0.00 0.00 0.00 62 1007.5
20260506040415 69 159 0.9 7.8 0.00 0.00 0.00 62 1007.5
20260506040314 69 190 0.9 9.6 0.00 0.00 0.00 62 1007.4
20260506040214 69 166 0.9 9.6 0.00 0.00 0.00 62 1007.4
20260506040131 69 143 0.9 9.6 0.00 0.00 0.00 62 1007.5
20260506040113 69 192 0.9 9.6 0.00 0.00 0.00 62 1007.5
20260506040020 69 155 0.0 12.2 0.00 0.00 0.00 62 1007.6
20260506040013 69 176 0.9 12.2 0.00 0.00 0.00 62 1007.4
20260506035959 69 209 0.9 13.9 0.00 0.00 0.00 62 1007.5
20260506035953 69 184 0.9 13.9 0.00 0.00 0.00 62 1007.5
20260506035949 69 194 0.9 13.9 0.00 0.00 0.00 62 1007.5
20260506035944 69 182 0.9 12.2 0.00 0.00 0.00 62 1007.5
20260506035935 69 200 0.9 12.2 0.00 0.00 0.00 62 1007.4
20260506035520 69 156 2.6 12.2 0.00 0.00 0.00 62 1007.7
20260506035510 69 161 0.9 13.9 0.00 0.00 0.00 62 1007.5
20260506035409 69 170 0.9 13.9 0.00 0.00 0.00 62 1007.5
20260506035351 69 217 0.9 13.9 0.00 0.00 0.00 62 1007.4
20260506035309 69 164 0.9 13.9 0.00 0.00 0.00 62 1007.5
20260506035236 69 159 0.9 13.9 0.00 0.00 0.00 62 1007.4
20260506035108 69 189 0.0 13.9 0.00 0.00 0.00 62 1007.4
20260506035020 69 176 0.0 7.8 0.00 0.00 0.00 62 1007.6
20260506035007 69 176 0.0 13.9 0.00 0.00 0.00 61 1007.4
20260506034907 69 201 0.0 13.9 0.00 0.00 0.00 61 1007.4
20260506034807 69 169 0.0 13.9 0.00 0.00 0.00 61 1007.4
20260506034706 69 217 0.0 7.8 0.00 0.00 0.00 61 1007.4
20260506034625 69 153 0.0 4.3 0.00 0.00 0.00 61 1007.4
20260506034606 69 157 0.0 5.2 0.00 0.00 0.00 61 1007.4
20260506034535 69 157 0.0 5.2 0.00 0.00 0.00 61 1007.6
20260506034527 69 181 0.0 5.2 0.00 0.00 0.00 61 1007.4
20260506034414 69 195 0.0 5.2 0.00 0.00 0.00 61 1007.4
20260506034222 69 212 0.0 10.4 0.00 0.00 0.00 61 1007.4
20260506034217 69 190 0.0 10.4 0.00 0.00 0.00 61 1007.4
20260506034209 69 164 0.0 10.4 0.00 0.00 0.00 61 1007.4
20260506034020 69 190 0.0 10.4 0.00 0.00 0.00 61 1007.6
20260506034002 69 184 0.0 10.4 0.00 0.00 0.00 61 1007.4
20260506033916 69 187 0.9 10.4 0.00 0.00 0.00 61 1007.4
20260506033910 69 182 0.0 10.4 0.00 0.00 0.00 61 1007.4
20260506033700 69 190 0.9 10.4 0.00 0.00 0.00 61 1007.4
20260506033625 69 167 0.9 10.4 0.00 0.00 0.00 61 1007.4
20260506033559 69 170 0.9 10.4 0.00 0.00 0.00 61 1007.3
20260506033520 69 160 0.0 16.5 0.00 0.00 0.00 61 1007.5
20260506033459 69 120 0.9 16.5 0.00 0.00 0.00 61 1007.3
20260506033359 69 153 0.9 16.5 0.00 0.00 0.00 61 1007.2
20260506033258 69 188 0.9 16.5 0.00 0.00 0.00 61 1007.3
20260506033157 69 180 1.7 16.5 0.00 0.00 0.00 61 1007.3
20260506033124 69 209 1.7 16.5 0.00 0.00 0.00 61 1007.3
20260506033056 69 164 1.7 16.5 0.00 0.00 0.00 61 1007.2
20260506033020 69 175 0.0 16.5 0.00 0.00 0.00 61 1007.4
20260506032956 69 188 2.6 16.5 0.00 0.00 0.00 61 1007.3
20260506032909 69 200 3.5 16.5 0.00 0.00 0.00 61 1007.3
20260506032903 69 211 2.6 16.5 0.00 0.00 0.00 60 1007.3
20260506032713 69 161 3.5 16.5 0.00 0.00 0.00 60 1007.3
20260506032708 69 156 2.6 16.5 0.00 0.00 0.00 60 1007.3
20260506032659 69 181 2.6 16.5 0.00 0.00 0.00 60 1007.3
20260506032520 69 194 0.0 13.0 0.00 0.00 0.00 60 1007.4
20260506032453 69 167 3.5 13.0 0.00 0.00 0.00 60 1007.3
20260506032409 69 159 2.6 13.0 0.00 0.00 0.00 60 1007.3
20260506032405 69 198 2.6 13.0 0.00 0.00 0.00 60 1007.3
20260506032400 69 175 3.5 13.0 0.00 0.00 0.00 60 1007.2
20260506032232 69 170 2.6 13.0 0.00 0.00 0.00 60 1007.3
20260506032050 69 155 1.7 12.2 0.00 0.00 0.00 60 1007.3
20260506032020 69 148 12.2 12.2 0.00 0.00 0.00 60 1007.4
20260506032004 69 132 1.7 12.2 0.00 0.00 0.00 60 1007.3
20260506031959 69 148 1.7 12.2 0.00 0.00 0.00 60 1007.3
20260506031749 69 150 0.9 12.2 0.00 0.00 0.00 60 1007.3
20260506031708 69 192 0.9 9.6 0.00 0.00 0.00 60 1007.4
20260506031703 69 0 0.9 12.2 0.00 0.00 0.00 60 1007.3
20260506031655 69 192 0.9 12.2 0.00 0.00 0.00 60 1007.3
20260506031520 69 175 0.0 8.7 0.00 0.00 0.00 60 1007.5
20260506031448 69 147 0.9 8.7 0.00 0.00 0.00 60 1007.4
20260506031347 69 217 0.9 8.7 0.00 0.00 0.00 60 1007.3
20260506031247 69 150 0.9 8.7 0.00 0.00 0.00 60 1007.3
20260506031144 69 132 0.9 8.7 0.00 0.00 0.00 60 1007.3
20260506031125 69 211 0.9 11.3 0.00 0.00 0.00 60 1007.3
20260506031045 69 198 0.9 11.3 0.00 0.00 0.00 60 1007.3
20260506031020 69 360 0.9 11.3 0.00 0.00 0.00 60 1007.5
20260506030943 69 175 0.9 11.3 0.00 0.00 0.00 60 1007.4
20260506030844 69 225 0.9 11.3 0.00 0.00 0.00 59 1007.3
20260506030743 69 147 0.9 11.3 0.00 0.00 0.00 59 1007.3
20260506030703 69 159 0.9 11.3 0.00 0.00 0.00 59 1007.3
20260506030658 69 0 0.9 11.3 0.00 0.00 0.00 59 1007.3
20260506030650 69 197 0.9 11.3 0.00 0.00 0.00 59 1007.3
20260506030520 70 170 0.0 11.3 0.00 0.00 0.00 59 1007.5
20260506030443 69 152 0.9 11.3 0.00 0.00 0.00 59 1007.4
20260506030341 70 159 0.9 11.3 0.00 0.00 0.00 58 1007.4
20260506030241 70 167 0.9 11.3 0.00 0.00 0.00 58 1007.4
20260506030218 70 141 0.9 8.7 0.00 0.00 0.00 58 1007.3
20260506030214 70 0 0.9 8.7 0.00 0.00 0.00 58 1007.3
20260506030210 70 138 0.9 10.4 0.00 0.00 0.00 57 1007.3
20260506030206 70 137 0.9 10.4 0.00 0.00 0.00 57 1007.3
20260506030202 70 154 0.9 10.4 0.00 0.00 0.00 57 1007.4
20260506030156 70 167 0.9 11.3 0.00 0.00 0.00 58 1007.4
20260506030149 70 146 0.9 8.7 0.00 0.00 0.00 58 1007.4
20260506030035 70 0 0.9 10.4 0.00 0.00 0.00 57 1007.5
20260506030028 70 186 0.9 8.7 0.00 0.00 0.00 58 1007.4
20260506030020 70 139 0.0 8.7 0.00 0.00 0.00 58 1007.5
20260506025910 70 169 0.9 8.7 0.00 0.00 0.00 57 1007.4
20260506025520 70 159 0.0 10.4 0.00 0.00 0.00 57 1007.6
20260506025336 70 172 0.9 10.4 0.00 0.00 0.00 56 1007.5
20260506025247 70 134 0.9 10.4 0.00 0.00 0.00 56 1007.4
20260506025243 70 165 0.9 10.4 0.00 0.00 0.00 56 1007.3
20260506025122 70 152 0.9 10.4 0.00 0.00 0.00 56 1007.4
20260506025033 71 147 0.9 10.4 0.00 0.00 0.00 56 1007.4
20260506025020 71 169 5.2 10.4 0.00 0.00 0.00 56 1007.5
20260506024932 71 160 0.9 13.9 0.00 0.00 0.00 55 1007.4
20260506024846 71 0 0.9 13.9 0.00 0.00 0.00 55 1007.5
20260506024840 71 0 0.9 13.9 0.00 0.00 0.00 55 1007.4
20260506024632 71 130 0.9 13.9 0.00 0.00 0.00 55 1007.5
20260506024622 71 0 0.9 13.9 0.00 0.00 0.00 55 1007.5
20260506024531 71 173 0.9 13.9 0.00 0.00 0.00 55 1007.4
20260506024520 71 165 0.0 13.0 0.00 0.00 0.00 55 1007.5
20260506024445 71 172 0.9 13.9 0.00 0.00 0.00 54 1007.4
20260506024439 71 205 0.9 13.9 0.00 0.00 0.00 55 1007.4
20260506024229 71 155 0.9 13.9 0.00 0.00 0.00 54 1007.4
20260506024128 71 143 0.9 13.9 0.00 0.00 0.00 54 1007.4
20260506024121 71 188 0.9 13.9 0.00 0.00 0.00 54 1007.4
20260506024035 71 166 0.9 13.0 0.00 0.00 0.00 54 1007.5
20260506024028 71 144 0.9 13.9 0.00 0.00 0.00 54 1007.5
20260506023927 71 182 0.0 8.7 0.00 0.00 0.00 53 1007.4
20260506023826 71 180 0.0 8.7 0.00 0.00 0.00 53 1007.5
20260506023726 71 168 0.0 8.7 0.00 0.00 0.00 53 1007.4
20260506023628 71 163 0.0 8.7 0.00 0.00 0.00 53 1007.4
20260506023621 71 161 0.0 8.7 0.00 0.00 0.00 53 1007.4
20260506023539 71 162 0.0 8.7 0.00 0.00 0.00 52 1007.5
20260506023533 71 165 0.0 8.7 0.00 0.00 0.00 53 1007.5
20260506023521 71 164 0.0 8.7 0.00 0.00 0.00 53 1007.6
20260506023323 71 195 0.0 8.7 0.00 0.00 0.00 52 1007.5
20260506023243 72 153 0.0 8.7 0.00 0.00 0.00 52 1007.5
20260506023238 71 161 0.0 8.7 0.00 0.00 0.00 52 1007.4
20260506023124 72 153 0.0 8.7 0.00 0.00 0.00 52 1007.5
20260506023023 72 171 0.0 7.0 0.00 0.00 0.00 52 1007.5
20260506023020 72 169 0.0 4.3 0.00 0.00 0.00 52 1007.5
20260506022921 72 177 0.0 9.6 0.00 0.00 0.00 52 1007.4
20260506022821 72 155 0.0 9.6 0.00 0.00 0.00 51 1007.4
20260506022734 72 165 0.0 9.6 0.00 0.00 0.00 51 1007.5
20260506022725 72 0 0.9 9.6 0.00 0.00 0.00 51 1007.5
20260506022520 72 159 0.0 8.7 0.00 0.00 0.00 51 1007.6
20260506022419 72 201 0.9 9.6 0.00 0.00 0.00 51 1007.5
20260506022319 72 153 0.9 9.6 0.00 0.00 0.00 51 1007.5
20260506022217 72 164 0.9 9.6 0.00 0.00 0.00 51 1007.5
20260506022122 72 159 0.9 9.6 0.00 0.00 0.00 50 1007.5
20260506022117 72 153 0.9 9.6 0.00 0.00 0.00 50 1007.5
20260506022035 72 182 4.3 9.6 0.00 0.00 0.00 50 1007.5
20260506022017 72 175 0.9 9.6 0.00 0.00 0.00 50 1007.4
20260506021917 72 184 0.9 9.6 0.00 0.00 0.00 50 1007.4
20260506021831 72 186 0.9 9.6 0.00 0.00 0.00 50 1007.4
20260506021826 72 181 0.9 9.6 0.00 0.00 0.00 50 1007.4
20260506021621 73 189 0.9 9.6 0.00 0.00 0.00 50 1007.4
20260506021616 72 190 0.9 9.6 0.00 0.00 0.00 50 1007.4
20260506021542 73 177 0.9 7.8 0.00 0.00 0.00 50 1007.4
20260506021538 73 140 1.7 7.8 0.00 0.00 0.00 50 1007.4
20260506021533 73 142 0.9 9.6 0.00 0.00 0.00 50 1007.4
20260506021520 73 155 0.0 9.6 0.00 0.00 0.00 50 1007.5
20260506021214 73 167 0.9 10.4 0.00 0.00 0.00 50 1007.4
20260506021120 73 148 0.9 10.4 0.00 0.00 0.00 50 1007.4
20260506021113 73 167 0.9 10.4 0.00 0.00 0.00 50 1007.5
20260506021049 73 200 0.0 10.4 0.00 0.00 0.00 50 1007.5
20260506021013 73 173 0.9 10.4 0.00 0.00 0.00 50 1007.4
20260506020914 73 195 0.9 10.4 0.00 0.00 0.00 49 1007.4
20260506020812 73 188 0.9 10.4 0.00 0.00 0.00 49 1007.4
20260506020712 73 192 0.9 11.3 0.00 0.00 0.00 49 1007.4
20260506020619 73 186 0.9 11.3 0.00 0.00 0.00 49 1007.4
20260506020611 73 186 1.7 11.3 0.00 0.00 0.00 49 1007.3
20260506020535 73 200 0.0 12.2 0.00 0.00 0.00 49 1007.5
20260506020511 73 202 1.7 12.2 0.00 0.00 0.00 49 1007.4
20260506020424 73 209 1.7 12.2 0.00 0.00 0.00 49 1007.4
20260506020419 73 190 1.7 12.2 0.00 0.00 0.00 49 1007.3
20260506020242 73 168 1.7 12.2 0.00 0.00 0.00 49 1007.4
20260506020237 73 184 1.7 12.2 0.00 0.00 0.00 48 1007.4
20260506020232 73 165 1.7 12.2 0.00 0.00 0.00 49 1007.3
20260506020224 73 90 1.7 12.2 0.00 0.00 0.00 49 1007.3
20260506020020 73 196 0.0 12.2 0.00 0.00 0.00 48 1007.5
20260506015908 73 199 1.7 12.2 0.00 0.00 0.00 48 1007.4
20260506015807 73 162 1.7 12.2 0.00 0.00 0.00 48 1007.4
20260506015708 73 160 1.7 12.2 0.00 0.00 0.00 48 1007.4
20260506015618 73 199 1.7 12.2 0.00 0.00 0.00 48 1007.4
20260506015608 73 132 1.7 12.2 0.00 0.00 0.00 48 1007.4
20260506015520 73 167 12.2 12.2 0.00 0.00 0.00 48 1007.3
20260506015506 73 169 1.7 12.2 0.00 0.00 0.00 48 1007.3
20260506015406 73 136 1.7 14.8 0.00 0.00 0.00 48 1007.3
20260506015306 73 179 1.7 14.8 0.00 0.00 0.00 48 1007.3
20260506015204 73 136 1.7 14.8 0.00 0.00 0.00 47 1007.3
20260506015146 74 190 1.7 14.8 0.00 0.00 0.00 47 1007.3
20260506015140 73 147 1.7 14.8 0.00 0.00 0.00 48 1007.3
20260506015134 73 168 1.7 14.8 0.00 0.00 0.00 48 1007.3
20260506015020 73 174 0.0 14.8 0.00 0.00 0.00 47 1007.3
20260506014702 74 150 1.7 14.8 0.00 0.00 0.00 47 1007.3
20260506014619 74 189 1.7 14.8 0.00 0.00 0.00 47 1007.3
20260506014601 74 181 1.7 14.8 0.00 0.00 0.00 47 1007.3
20260506014535 74 143 0.0 14.8 0.00 0.00 0.00 47 1007.2
20260506014500 74 146 1.7 14.8 0.00 0.00 0.00 47 1007.2
20260506014400 74 166 2.6 19.1 0.00 0.00 0.00 47 1007.3
20260506014351 74 167 2.6 19.1 0.00 0.00 0.00 47 1007.2
20260506014340 74 153 2.6 19.1 0.00 0.00 0.00 47 1007.2
20260506014333 74 184 2.6 19.1 0.00 0.00 0.00 47 1007.2
20260506014100 74 173 2.6 19.1 0.00 0.00 0.00 47 1007.2
20260506014020 74 130 2.6 19.1 0.00 0.00 0.00 47 1007.1
20260506014012 74 184 2.6 19.1 0.00 0.00 0.00 47 1007.2
20260506014007 74 151 2.6 19.1 0.00 0.00 0.00 47 1007.1
20260506013757 74 169 2.6 19.1 0.00 0.00 0.00 47 1007.2
20260506013729 74 169 2.6 19.1 0.00 0.00 0.00 46 1007.1
20260506013724 74 212 2.6 19.1 0.00 0.00 0.00 46 1007.1
20260506013718 74 167 2.6 19.1 0.00 0.00 0.00 46 1007.1
20260506013710 74 161 2.6 19.1 0.00 0.00 0.00 46 1007.1
20260506013520 74 150 0.0 19.1 0.00 0.00 0.00 46 1007.1
20260506013441 74 192 1.7 16.5 0.00 0.00 0.00 46 1007.1
20260506013354 74 160 1.7 16.5 0.00 0.00 0.00 46 1007.2
20260506013343 74 192 1.7 16.5 0.00 0.00 0.00 46 1007.1
20260506013337 74 173 1.7 16.5 0.00 0.00 0.00 46 1007.1
20260506013327 74 185 1.7 16.5 0.00 0.00 0.00 46 1007.1
20260506013020 74 148 3.5 16.5 0.00 0.00 0.00 46 1007.1
20260506012959 74 198 1.7 15.6 0.00 0.00 0.00 46 1007.1
20260506012749 74 186 0.9 13.0 0.00 0.00 0.00 46 1007.0
20260506012648 74 155 0.9 13.0 0.00 0.00 0.00 46 1007.1
20260506012614 74 179 0.9 13.0 0.00 0.00 0.00 46 1007.1
20260506012547 74 180 0.9 13.0 0.00 0.00 0.00 46 1007.1
20260506012520 74 163 0.0 13.0 0.00 0.00 0.00 46 1007.1
20260506012447 74 168 0.9 13.0 0.00 0.00 0.00 46 1007.1
20260506012401 74 209 0.9 13.0 0.00 0.00 0.00 46 1007.0
20260506012355 74 177 0.9 13.0 0.00 0.00 0.00 46 1007.0
20260506012146 74 137 0.9 8.7 0.00 0.00 0.00 46 1007.0
20260506012114 74 150 0.9 8.7 0.00 0.00 0.00 46 1007.1
20260506012045 74 188 0.9 8.7 0.00 0.00 0.00 46 1007.1
20260506012020 74 178 0.0 8.7 0.00 0.00 0.00 46 1007.0
20260506011946 74 186 0.9 8.7 0.00 0.00 0.00 46 1007.0
20260506011845 74 191 0.9 13.0 0.00 0.00 0.00 45 1007.0
20260506011744 74 194 0.9 13.9 0.00 0.00 0.00 45 1007.1
20260506011703 74 160 0.9 13.9 0.00 0.00 0.00 45 1007.0
20260506011658 74 199 0.9 13.9 0.00 0.00 0.00 45 1007.0
20260506011650 74 0 0.9 13.9 0.00 0.00 0.00 45 1007.0
20260506011520 74 169 0.0 13.9 0.00 0.00 0.00 45 1007.0
20260506011443 74 195 0.9 13.9 0.00 0.00 0.00 45 1007.0
20260506011343 74 151 0.9 13.9 0.00 0.00 0.00 45 1006.9
20260506011242 74 198 0.9 13.9 0.00 0.00 0.00 45 1006.9
20260506011201 74 148 0.9 13.9 0.00 0.00 0.00 45 1006.9
20260506011156 74 197 0.9 13.9 0.00 0.00 0.00 45 1006.9
20260506011149 74 195 0.9 13.9 0.00 0.00 0.00 45 1006.9
20260506011035 74 171 0.9 13.9 0.00 0.00 0.00 45 1006.9
20260506011008 74 165 0.0 13.9 0.00 0.00 0.00 45 1006.9
20260506011004 74 161 0.0 5.2 0.00 0.00 0.00 45 1007.0
20260506010958 74 171 0.0 13.9 0.00 0.00 0.00 45 1006.9
20260506010640 74 0 0.0 5.2 0.00 0.00 0.00 44 1006.9
20260506010612 74 155 0.0 5.2 0.00 0.00 0.00 44 1006.9
20260506010539 74 179 0.0 5.2 0.00 0.00 0.00 44 1006.9
20260506010520 75 187 0.0 5.2 0.00 0.00 0.00 44 1006.9
20260506010438 74 163 0.0 5.2 0.00 0.00 0.00 44 1006.9
20260506010337 75 200 0.0 11.3 0.00 0.00 0.00 44 1006.9
20260506010239 75 0 0.9 11.3 0.00 0.00 0.00 44 1006.8
20260506010139 75 186 0.9 11.3 0.00 0.00 0.00 44 1006.9
20260506010110 75 0 0.9 11.3 0.00 0.00 0.00 44 1006.9
20260506010038 75 186 0.9 11.3 0.00 0.00 0.00 44 1006.9
20260506010020 75 189 0.0 11.3 0.00 0.00 0.00 44 1006.9
20260506005937 75 148 0.9 11.3 0.00 0.00 0.00 44 1006.9
20260506005841 75 155 0.9 11.3 0.00 0.00 0.00 44 1006.8
20260506005836 75 175 0.9 11.3 0.00 0.00 0.00 44 1006.8
20260506005735 75 188 0.9 11.3 0.00 0.00 0.00 44 1006.8
20260506005718 75 157 0.9 11.3 0.00 0.00 0.00 44 1006.7
20260506005545 75 196 0.9 11.3 0.00 0.00 0.00 43 1006.7
20260506005540 75 186 0.9 11.3 0.00 0.00 0.00 44 1006.8
20260506005520 75 187 0.0 11.3 0.00 0.00 0.00 44 1006.7
20260506005330 75 182 0.9 8.7 0.00 0.00 0.00 43 1006.8
20260506005232 75 127 0.9 8.7 0.00 0.00 0.00 43 1006.7
20260506005132 75 200 0.9 9.6 0.00 0.00 0.00 43 1006.7
20260506005109 75 186 0.9 9.6 0.00 0.00 0.00 43 1006.7
20260506005042 75 164 0.9 10.4 0.00 0.00 0.00 43 1006.8
20260506005038 75 141 0.9 9.6 0.00 0.00 0.00 43 1006.7
20260506005020 75 138 7.8 7.8 0.00 0.00 0.00 43 1006.8
20260506004828 75 158 1.7 13.0 0.00 0.00 0.00 43 1006.7
20260506004728 75 180 1.7 13.0 0.00 0.00 0.00 43 1006.8
20260506004628 75 221 1.7 13.0 0.00 0.00 0.00 43 1006.7
20260506004610 75 179 1.7 13.0 0.00 0.00 0.00 43 1006.8
20260506004538 75 138 2.6 13.0 0.00 0.00 0.00 43 1006.8
20260506004534 75 191 1.7 13.0 0.00 0.00 0.00 43 1006.8
20260506004520 75 175 0.0 13.0 0.00 0.00 0.00 43 1006.7
20260506004325 75 200 2.6 20.0 0.00 0.00 0.00 43 1006.8
20260506004223 75 169 2.6 20.0 0.00 0.00 0.00 43 1006.8
20260506004123 75 188 2.6 20.0 0.00 0.00 0.00 43 1006.8
20260506004109 75 200 2.6 20.0 0.00 0.00 0.00 43 1006.8
20260506004023 75 146 2.6 20.0 0.00 0.00 0.00 43 1006.8
20260506004020 76 148 0.0 20.0 0.00 0.00 0.00 43 1006.6
20260506003921 76 171 2.6 20.0 0.00 0.00 0.00 43 1006.7
20260506003835 76 220 2.6 20.0 0.00 0.00 0.00 43 1006.7
20260506003821 76 204 2.6 20.0 0.00 0.00 0.00 43 1006.8
20260506003725 76 155 2.6 20.0 0.00 0.00 0.00 43 1006.8
20260506003716 76 150 2.6 20.0 0.00 0.00 0.00 43 1006.7
20260506003543 76 161 1.7 14.8 0.00 0.00 0.00 43 1006.7
20260506003539 76 160 1.7 11.3 0.00 0.00 0.00 43 1006.7
20260506003535 76 200 2.6 20.0 0.00 0.00 0.00 43 1006.7
20260506003521 76 163 0.9 20.0 0.00 0.00 0.00 43 1006.6
20260506003216 76 183 0.9 11.3 0.00 0.00 0.00 43 1006.7
20260506003116 76 182 1.7 11.3 0.00 0.00 0.00 43 1006.7
20260506003108 76 162 1.7 11.3 0.00 0.00 0.00 43 1006.7
20260506003020 76 194 0.0 11.3 0.00 0.00 0.00 43 1006.5
20260506003014 76 194 1.7 11.3 0.00 0.00 0.00 43 1006.6
20260506002934 75 180 0.9 10.4 0.00 0.00 0.00 43 1006.6
20260506002930 75 177 0.9 11.3 0.00 0.00 0.00 43 1006.6
20260506002812 75 176 0.9 10.4 0.00 0.00 0.00 43 1006.6
20260506002658 76 192 0.9 10.4 0.00 0.00 0.00 44 1006.6
20260506002652 76 193 0.9 10.4 0.00 0.00 0.00 44 1006.6
20260506002520 76 161 5.2 12.2 0.00 0.00 0.00 44 1006.5
20260506002430 76 190 1.7 12.2 0.00 0.00 0.00 44 1006.5
20260506002426 76 194 0.9 12.2 0.00 0.00 0.00 44 1006.6
20260506002114 76 165 1.7 12.2 0.00 0.00 0.00 44 1006.5
20260506002108 76 163 1.7 12.2 0.00 0.00 0.00 44 1006.5
20260506002019 76 167 0.0 12.2 0.00 0.00 0.00 44 1006.4
20260506002007 76 156 1.7 12.2 0.00 0.00 0.00 44 1006.5
20260506001907 76 163 1.7 12.2 0.00 0.00 0.00 44 1006.5
20260506001806 76 174 1.7 12.2 0.00 0.00 0.00 44 1006.5
20260506001706 76 183 1.7 12.2 0.00 0.00 0.00 44 1006.5
20260506001611 76 175 0.9 12.2 0.00 0.00 0.00 44 1006.4
20260506001605 76 152 0.9 12.2 0.00 0.00 0.00 44 1006.4
20260506001526 76 180 0.9 11.3 0.00 0.00 0.00 44 1006.5
20260506001520 76 170 1.7 11.3 0.00 0.00 0.00 44 1006.4
20260506001413 76 136 0.9 11.3 0.00 0.00 0.00 44 1006.4
20260506001203 76 171 0.9 11.3 0.00 0.00 0.00 44 1006.5
20260506001108 76 178 0.9 7.0 0.00 0.00 0.00 44 1006.4
20260506001102 76 167 0.9 7.0 0.00 0.00 0.00 44 1006.4
20260506001020 76 146 3.5 7.0 0.00 0.00 0.00 44 1006.3
20260506001014 76 202 0.0 7.0 0.00 0.00 0.00 44 1006.4
20260506001010 76 171 0.9 7.0 0.00 0.00 0.00 44 1006.4
20260506000812 76 169 0.0 5.2 0.00 0.00 0.00 44 1006.4
20260506000808 76 194 0.0 7.0 0.00 0.00 0.00 44 1006.4
20260506000608 76 166 0.0 4.3 0.00 0.00 0.00 44 1006.4
20260506000559 76 179 0.0 4.3 0.00 0.00 0.00 44 1006.4
20260506000535 76 242 0.0 4.3 0.00 0.00 0.00 44 1006.3
20260506000459 76 183 0.0 4.3 0.00 0.00 0.00 44 1006.4
20260506000401 76 145 0.0 4.3 0.00 0.00 0.00 44 1006.4
20260506000258 76 151 0.0 4.3 0.00 0.00 0.00 44 1006.4
20260506000157 76 170 0.0 6.1 0.00 0.00 0.00 44 1006.4
20260506000107 76 166 0.0 6.1 0.00 0.00 0.00 44 1006.4
20260506000056 76 163 0.0 6.1 0.00 0.00 0.00 44 1006.4
20260506000050 76 165 0.0 7.8 0.00 0.00 0.00 44 1006.3
20260505235955 76 168 0.0 7.8 0.00 0.00 0.00 44 1006.4
20260505235853 76 177 0.0 7.8 0.00 0.00 0.00 44 1006.4
20260505235752 76 171 0.0 7.8 0.00 0.00 0.00 44 1006.3
20260505235652 76 159 0.0 7.8 0.00 0.00 0.00 44 1006.3
20260505235623 76 177 0.0 7.8 0.00 0.00 0.00 43 1006.3
20260505235619 76 188 0.9 7.8 0.00 0.00 0.00 43 1006.3
20260505235614 76 188 0.0 7.8 0.00 0.00 0.00 44 1006.3
20260505235608 76 186 0.0 7.8 0.00 0.00 0.00 44 1006.3
20260505235520 76 149 0.0 7.8 0.00 0.00 0.00 43 1006.2
20260505235250 76 167 0.9 8.7 0.00 0.00 0.00 43 1006.3
20260505235149 77 186 0.9 8.7 0.00 0.00 0.00 43 1006.3
20260505235104 77 173 0.9 8.7 0.00 0.00 0.00 43 1006.2
20260505235049 77 146 0.9 8.7 0.00 0.00 0.00 43 1006.2
20260505235019 77 156 7.8 8.7 0.00 0.00 0.00 43 1006.2
20260505234949 77 171 0.9 8.7 0.00 0.00 0.00 42 1006.3
20260505234935 77 162 0.9 8.7 0.00 0.00 0.00 42 1006.3
20260505234749 77 152 0.9 8.7 0.00 0.00 0.00 42 1006.2
20260505234713 77 183 0.9 8.7 0.00 0.00 0.00 42 1006.2
20260505234548 77 152 0.9 8.7 0.00 0.00 0.00 41 1006.3
20260505234520 77 165 0.0 8.7 0.00 0.00 0.00 41 1006.1
20260505234447 77 173 0.9 8.7 0.00 0.00 0.00 41 1006.2
20260505234346 77 179 0.0 8.7 0.00 0.00 0.00 41 1006.2
20260505234246 77 167 0.0 7.0 0.00 0.00 0.00 41 1006.2
20260505234144 77 159 0.0 7.0 0.00 0.00 0.00 41 1006.2
20260505234104 77 167 0.0 7.0 0.00 0.00 0.00 41 1006.2
20260505234044 77 153 0.0 7.0 0.00 0.00 0.00 41 1006.2
20260505234020 77 169 0.0 7.0 0.00 0.00 0.00 41 1006.0
20260505233942 77 138 0.0 7.0 0.00 0.00 0.00 40 1006.1
20260505233858 77 178 0.0 4.3 0.00 0.00 0.00 40 1006.2
20260505233854 77 0 0.0 7.0 0.00 0.00 0.00 40 1006.2
20260505233849 77 159 0.0 7.0 0.00 0.00 0.00 40 1006.2
20260505233714 77 0 0.0 7.0 0.00 0.00 0.00 40 1006.2
20260505233538 77 0 0.0 7.0 0.00 0.00 0.00 40 1006.2
20260505233520 77 360 0.0 7.0 0.00 0.00 0.00 40 1006.1
20260505233437 78 0 0.0 7.0 0.00 0.00 0.00 40 1006.2
20260505233337 78 0 0.0 7.0 0.00 0.00 0.00 40 1006.2
20260505233235 78 188 0.0 7.0 0.00 0.00 0.00 40 1006.1
20260505233135 78 175 0.0 7.0 0.00 0.00 0.00 40 1006.1
20260505233103 78 174 0.0 7.0 0.00 0.00 0.00 39 1006.1
20260505233034 78 173 0.0 7.0 0.00 0.00 0.00 39 1006.1
20260505233020 78 176 0.0 7.0 0.00 0.00 0.00 39 1006.0
20260505232934 78 188 0.0 7.0 0.00 0.00 0.00 39 1006.1
20260505232846 78 175 0.0 7.0 0.00 0.00 0.00 39 1006.1
20260505232842 78 212 0.0 7.0 0.00 0.00 0.00 39 1006.1
20260505232632 78 199 0.0 5.2 0.00 0.00 0.00 39 1006.1
20260505232603 78 188 0.0 5.2 0.00 0.00 0.00 39 1006.1
20260505232531 78 188 0.0 5.2 0.00 0.00 0.00 39 1006.1
20260505232520 78 188 0.0 4.3 0.00 0.00 0.00 39 1006.0
20260505232430 78 171 0.0 5.2 0.00 0.00 0.00 39 1006.1
20260505232329 78 202 0.0 8.7 0.00 0.00 0.00 39 1006.1
20260505232229 78 187 0.0 8.7 0.00 0.00 0.00 39 1006.1
20260505232129 78 202 0.0 8.7 0.00 0.00 0.00 39 1006.1
20260505232103 78 200 0.0 8.7 0.00 0.00 0.00 38 1006.1
20260505232028 78 188 0.0 8.7 0.00 0.00 0.00 38 1006.1
20260505232020 78 182 4.3 8.7 0.00 0.00 0.00 39 1006.0
20260505231940 78 203 0.0 8.7 0.00 0.00 0.00 38 1006.1
20260505231935 78 191 0.0 8.7 0.00 0.00 0.00 39 1006.1
20260505231726 78 196 0.0 8.7 0.00 0.00 0.00 38 1006.1
20260505231626 78 200 0.0 9.6 0.00 0.00 0.00 38 1006.0
20260505231603 78 203 0.0 9.6 0.00 0.00 0.00 38 1006.0
20260505231524 78 198 0.0 9.6 0.00 0.00 0.00 38 1006.0
20260505231520 78 176 0.0 9.6 0.00 0.00 0.00 38 1005.9
20260505231424 78 196 0.0 9.6 0.00 0.00 0.00 38 1006.0
20260505231323 78 190 0.0 9.6 0.00 0.00 0.00 38 1006.0
20260505231223 78 184 0.0 9.6 0.00 0.00 0.00 38 1006.1
20260505231123 78 176 0.0 9.6 0.00 0.00 0.00 38 1006.0
20260505231102 78 206 0.0 9.6 0.00 0.00 0.00 38 1006.0
20260505231021 78 164 0.0 9.6 0.00 0.00 0.00 38 1006.0
20260505230933 78 169 0.9 9.6 0.00 0.00 0.00 37 1006.0
20260505230929 78 203 0.0 9.6 0.00 0.00 0.00 38 1006.0
20260505230719 78 152 0.9 9.6 0.00 0.00 0.00 38 1006.0
20260505230619 78 190 0.0 9.6 0.00 0.00 0.00 38 1006.0
20260505230602 78 188 0.9 9.6 0.00 0.00 0.00 38 1006.0
20260505230520 79 167 0.0 12.2 0.00 0.00 0.00 37 1005.9
20260505230518 78 167 0.9 9.6 0.00 0.00 0.00 37 1006.0
20260505230429 78 194 0.9 12.2 0.00 0.00 0.00 37 1006.0
20260505230424 78 211 0.9 12.2 0.00 0.00 0.00 38 1006.0
20260505230228 79 228 0.9 12.2 0.00 0.00 0.00 37 1006.0
20260505230224 79 197 0.9 12.2 0.00 0.00 0.00 37 1005.9
20260505230020 79 212 0.0 12.2 0.00 0.00 0.00 37 1005.9
20260505230014 79 212 1.7 12.2 0.00 0.00 0.00 37 1006.0
20260505225914 79 213 0.9 12.2 0.00 0.00 0.00 37 1005.9
20260505225826 79 188 0.9 12.2 0.00 0.00 0.00 37 1006.0
20260505225822 79 171 0.9 12.2 0.00 0.00 0.00 37 1006.0
20260505225612 79 191 0.9 12.2 0.00 0.00 0.00 36 1005.9
20260505225600 79 203 0.9 12.2 0.00 0.00 0.00 36 1005.9
20260505225520 79 208 12.2 12.2 0.00 0.00 0.00 36 1005.7
20260505225512 79 194 0.9 12.2 0.00 0.00 0.00 36 1005.9
20260505225410 79 159 0.9 12.2 0.00 0.00 0.00 37 1006.0
20260505225310 79 203 0.9 13.9 0.00 0.00 0.00 36 1006.0
20260505225211 79 210 0.9 13.9 0.00 0.00 0.00 37 1005.9
20260505225110 79 184 0.9 13.9 0.00 0.00 0.00 36 1006.0
20260505225100 79 177 0.9 13.9 0.00 0.00 0.00 36 1006.0
20260505225020 79 184 5.2 13.9 0.00 0.00 0.00 36 1005.7
20260505225010 79 180 0.9 13.9 0.00 0.00 0.00 36 1005.9
20260505224909 79 238 0.9 13.9 0.00 0.00 0.00 36 1005.9
20260505224808 79 225 0.9 13.9 0.00 0.00 0.00 36 1005.9
20260505224709 79 182 0.9 13.9 0.00 0.00 0.00 36 1005.9
20260505224607 79 194 0.9 13.9 0.00 0.00 0.00 35 1005.9
20260505224558 79 207 0.9 13.9 0.00 0.00 0.00 35 1005.9
20260505224520 79 240 0.0 13.9 0.00 0.00 0.00 35 1005.7
20260505224506 79 207 0.9 13.9 0.00 0.00 0.00 35 1005.9
20260505224406 79 192 0.9 13.9 0.00 0.00 0.00 35 1005.9
20260505224305 80 202 0.9 13.0 0.00 0.00 0.00 35 1006.0
20260505224205 80 227 0.9 13.0 0.00 0.00 0.00 35 1005.9
20260505224106 80 180 0.0 13.0 0.00 0.00 0.00 35 1006.0
20260505224100 80 183 0.0 13.0 0.00 0.00 0.00 35 1006.0
20260505224020 80 196 4.3 7.8 0.00 0.00 0.00 35 1005.8
20260505224004 80 182 0.0 7.8 0.00 0.00 0.00 35 1005.9
20260505223902 80 191 0.0 8.7 0.00 0.00 0.00 35 1005.9
20260505223829 80 200 0.0 8.7 0.00 0.00 0.00 35 1005.9
20260505223715 80 178 0.0 8.7 0.00 0.00 0.00 35 1005.9
20260505223602 80 208 0.0 8.7 0.00 0.00 0.00 35 1005.9
20260505223520 80 232 0.0 8.7 0.00 0.00 0.00 35 1005.7
20260505223500 80 212 0.0 8.7 0.00 0.00 0.00 35 1005.8
20260505223400 80 197 0.0 8.7 0.00 0.00 0.00 35 1005.8
20260505223259 80 167 0.0 8.7 0.00 0.00 0.00 35 1005.8
20260505223159 80 221 0.0 8.7 0.00 0.00 0.00 35 1005.9
20260505223100 80 206 0.0 8.7 0.00 0.00 0.00 35 1005.8
20260505223021 80 204 0.0 10.4 0.00 0.00 0.00 35 1005.7
20260505223010 80 214 0.9 13.0 0.00 0.00 0.00 35 1005.8
20260505223005 80 220 0.0 10.4 0.00 0.00 0.00 35 1005.8
20260505222756 80 252 0.9 13.0 0.00 0.00 0.00 35 1005.8
20260505222654 80 229 0.9 13.0 0.00 0.00 0.00 34 1005.8
20260505222601 80 223 0.9 13.0 0.00 0.00 0.00 34 1005.8
20260505222555 80 199 0.9 13.0 0.00 0.00 0.00 34 1005.8
20260505222535 81 200 0.0 13.0 0.00 0.00 0.00 34 1005.7
20260505222516 80 215 0.9 13.0 0.00 0.00 0.00 34 1005.8
20260505222403 80 211 0.9 13.0 0.00 0.00 0.00 34 1005.8
20260505222152 81 186 0.9 13.0 0.00 0.00 0.00 34 1005.9
20260505222111 81 238 0.9 13.0 0.00 0.00 0.00 35 1005.8
20260505222106 81 212 0.9 13.0 0.00 0.00 0.00 34 1005.8
20260505222100 81 204 0.9 13.0 0.00 0.00 0.00 34 1005.8
20260505222020 81 236 0.9 13.0 0.00 0.00 0.00 35 1005.7
20260505221851 81 196 0.9 13.0 0.00 0.00 0.00 34 1005.8
20260505221750 81 185 0.9 13.0 0.00 0.00 0.00 34 1005.7
20260505221649 81 238 0.9 13.0 0.00 0.00 0.00 34 1005.8
20260505221557 81 195 0.9 13.0 0.00 0.00 0.00 35 1005.8
20260505221549 81 209 0.9 13.0 0.00 0.00 0.00 35 1005.8
20260505221520 81 236 0.0 9.6 0.00 0.00 0.00 35 1005.7
20260505221500 81 197 0.9 13.0 0.00 0.00 0.00 34 1005.7
20260505221456 81 163 0.9 13.0 0.00 0.00 0.00 35 1005.8
20260505221246 81 175 0.9 13.0 0.00 0.00 0.00 34 1005.7
20260505221146 81 247 0.9 13.0 0.00 0.00 0.00 34 1005.7
20260505221056 81 184 0.9 8.7 0.00 0.00 0.00 34 1005.7
20260505221045 81 190 0.9 8.7 0.00 0.00 0.00 34 1005.7
20260505221020 81 153 8.7 8.7 0.00 0.00 0.00 34 1005.6
20260505220945 81 219 0.9 7.8 0.00 0.00 0.00 34 1005.7
20260505220912 81 239 0.9 8.7 0.00 0.00 0.00 35 1005.7
20260505220908 81 183 0.9 8.7 0.00 0.00 0.00 34 1005.7
20260505220903 81 192 0.9 7.8 0.00 0.00 0.00 34 1005.8
20260505220603 81 207 1.7 18.2 0.00 0.00 0.00 34 1005.7
20260505220558 81 180 0.9 18.2 0.00 0.00 0.00 34 1005.7
20260505220553 81 165 0.9 18.2 0.00 0.00 0.00 34 1005.7
20260505220520 81 195 0.0 18.2 0.00 0.00 0.00 34 1005.6
20260505220343 81 174 1.7 18.2 0.00 0.00 0.00 34 1005.7
20260505220243 81 229 1.7 19.1 0.00 0.00 0.00 34 1005.7
20260505220202 80 201 2.6 19.1 0.00 0.00 0.00 34 1005.7
20260505220156 80 265 2.6 19.1 0.00 0.00 0.00 34 1005.7
20260505220148 80 216 2.6 19.1 0.00 0.00 0.00 34 1005.7
20260505220020 80 173 0.9 19.1 0.00 0.00 0.00 34 1005.6
20260505215940 80 213 2.6 19.1 0.00 0.00 0.00 34 1005.7
20260505215840 80 205 2.6 19.1 0.00 0.00 0.00 34 1005.7
20260505215739 80 196 2.6 19.1 0.00 0.00 0.00 33 1005.6
20260505215658 81 163 1.7 19.1 0.00 0.00 0.00 33 1005.7
20260505215653 80 192 2.6 19.1 0.00 0.00 0.00 33 1005.6
20260505215645 81 170 1.7 19.1 0.00 0.00 0.00 33 1005.7
20260505215520 81 210 0.9 19.1 0.00 0.00 0.00 33 1005.6
20260505215437 81 178 1.7 19.1 0.00 0.00 0.00 33 1005.7
20260505215337 81 196 1.7 19.1 0.00 0.00 0.00 33 1005.7
20260505215237 81 159 0.9 14.8 0.00 0.00 0.00 34 1005.7
20260505215137 81 188 0.9 14.8 0.00 0.00 0.00 33 1005.5
20260505215053 81 248 1.7 13.0 0.00 0.00 0.00 34 1005.7
20260505215037 81 223 1.7 13.0 0.00 0.00 0.00 34 1005.7
20260505215020 81 196 0.0 13.0 0.00 0.00 0.00 35 1005.6
20260505214936 81 193 1.7 13.0 0.00 0.00 0.00 34 1005.7
20260505214833 81 168 2.6 13.0 0.00 0.00 0.00 34 1005.7
20260505214733 81 237 2.6 13.0 0.00 0.00 0.00 34 1005.8
20260505214652 81 193 2.6 13.0 0.00 0.00 0.00 34 1005.7
20260505214647 81 202 2.6 13.0 0.00 0.00 0.00 34 1005.7
20260505214639 81 198 2.6 13.0 0.00 0.00 0.00 34 1005.7
20260505214521 81 244 3.5 13.0 0.00 0.00 0.00 34 1005.6
20260505214430 81 222 2.6 13.0 0.00 0.00 0.00 34 1005.7
20260505214330 81 211 2.6 13.0 0.00 0.00 0.00 34 1005.7
20260505214315 81 205 1.7 13.0 0.00 0.00 0.00 33 1005.6
20260505214230 81 261 2.6 13.0 0.00 0.00 0.00 33 1005.6
20260505214200 81 205 2.6 13.0 0.00 0.00 0.00 33 1005.7
20260505214028 81 202 1.7 13.0 0.00 0.00 0.00 33 1005.6
20260505214020 81 157 9.6 13.0 0.00 0.00 0.00 34 1005.6
20260505213929 81 185 1.7 11.3 0.00 0.00 0.00 34 1005.7
20260505213827 81 241 1.7 11.3 0.00 0.00 0.00 34 1005.6
20260505213727 81 183 1.7 15.6 0.00 0.00 0.00 35 1005.6
20260505213627 81 207 1.7 15.6 0.00 0.00 0.00 34 1005.6
20260505213550 81 183 1.7 15.6 0.00 0.00 0.00 34 1005.5
20260505213527 81 191 1.7 15.6 0.00 0.00 0.00 34 1005.5
20260505213521 81 173 7.8 15.6 0.00 0.00 0.00 34 1005.4
20260505213427 81 195 1.7 15.6 0.00 0.00 0.00 33 1005.5
20260505213327 81 160 1.7 15.6 0.00 0.00 0.00 34 1005.6
20260505213320 81 209 2.6 15.6 0.00 0.00 0.00 33 1005.5
20260505213226 81 211 2.6 15.6 0.00 0.00 0.00 34 1005.6
20260505213158 81 196 1.7 15.6 0.00 0.00 0.00 34 1005.5
20260505213025 81 196 2.6 15.6 0.00 0.00 0.00 33 1005.5
20260505213020 81 221 0.0 15.6 0.00 0.00 0.00 33 1005.4
20260505212924 81 213 2.6 20.9 0.00 0.00 0.00 33 1005.5
20260505212824 81 175 2.6 20.9 0.00 0.00 0.00 33 1005.5
20260505212722 81 194 2.6 20.9 0.00 0.00 0.00 33 1005.5
20260505212622 81 181 2.6 20.9 0.00 0.00 0.00 33 1005.5
20260505212551 81 162 2.6 20.9 0.00 0.00 0.00 33 1005.5
20260505212522 81 177 2.6 20.9 0.00 0.00 0.00 33 1005.5
20260505212520 81 165 3.5 20.9 0.00 0.00 0.00 33 1005.4
20260505212421 81 192 2.6 20.9 0.00 0.00 0.00 33 1005.5
20260505212321 81 195 1.7 20.9 0.00 0.00 0.00 33 1005.5
20260505212220 81 217 2.6 20.9 0.00 0.00 0.00 33 1005.6
20260505212119 81 229 2.6 20.9 0.00 0.00 0.00 33 1005.6
20260505212050 81 220 2.6 20.9 0.00 0.00 0.00 33 1005.6
20260505212032 81 186 1.7 17.4 0.00 0.00 0.00 32 1005.6
20260505212027 81 213 2.6 20.9 0.00 0.00 0.00 32 1005.6
20260505212020 81 185 2.6 20.9 0.00 0.00 0.00 32 1005.5
20260505211816 82 219 1.7 14.8 0.00 0.00 0.00 33 1005.6
20260505211717 82 228 0.9 14.8 0.00 0.00 0.00 33 1005.6
20260505211710 81 211 1.7 14.8 0.00 0.00 0.00 33 1005.5
20260505211704 82 193 1.7 14.8 0.00 0.00 0.00 33 1005.6
20260505211553 81 198 1.7 14.8 0.00 0.00 0.00 33 1005.5
20260505211546 82 171 0.9 13.0 0.00 0.00 0.00 33 1005.6
20260505211541 81 240 1.7 14.8 0.00 0.00 0.00 32 1005.5
20260505211520 81 207 0.0 13.9 0.00 0.00 0.00 32 1005.4
20260505211111 81 190 1.7 9.6 0.00 0.00 0.00 32 1005.5
20260505211048 82 215 1.7 9.6 0.00 0.00 0.00 32 1005.6
20260505211020 81 179 0.0 18.2 0.00 0.00 0.00 32 1005.4
20260505211011 81 179 0.9 18.2 0.00 0.00 0.00 32 1005.5
20260505210925 81 198 1.7 18.2 0.00 0.00 0.00 33 1005.6
20260505210920 81 236 0.9 18.2 0.00 0.00 0.00 32 1005.6
20260505210710 81 194 1.7 18.2 0.00 0.00 0.00 32 1005.6
20260505210610 82 203 1.7 18.2 0.00 0.00 0.00 31 1005.7
20260505210547 82 242 1.7 18.2 0.00 0.00 0.00 31 1005.7
20260505210520 82 219 0.9 18.2 0.00 0.00 0.00 32 1005.5
20260505210509 82 229 1.7 18.2 0.00 0.00 0.00 32 1005.6
20260505210408 82 193 1.7 18.2 0.00 0.00 0.00 31 1005.8
20260505210307 82 213 1.7 18.2 0.00 0.00 0.00 31 1005.8
20260505210207 82 217 1.7 18.2 0.00 0.00 0.00 31 1005.7
20260505210106 82 197 1.7 18.2 0.00 0.00 0.00 31 1005.7
20260505210047 82 196 1.7 18.2 0.00 0.00 0.00 31 1005.7
20260505210020 82 235 0.0 14.8 0.00 0.00 0.00 31 1005.6
20260505210005 82 234 1.7 15.6 0.00 0.00 0.00 31 1005.7
20260505205903 82 221 1.7 15.6 0.00 0.00 0.00 32 1005.7
20260505205803 82 235 1.7 15.6 0.00 0.00 0.00 31 1005.7
20260505205727 82 189 1.7 15.6 0.00 0.00 0.00 31 1005.8
20260505205614 82 175 2.6 20.9 0.00 0.00 0.00 31 1005.8
20260505205607 82 223 2.6 20.9 0.00 0.00 0.00 31 1005.8
20260505205559 82 188 1.7 20.9 0.00 0.00 0.00 31 1005.8
20260505205520 82 197 0.0 20.9 0.00 0.00 0.00 31 1005.6
20260505205446 82 252 1.7 20.9 0.00 0.00 0.00 32 1005.8
20260505205334 81 194 1.7 20.9 0.00 0.00 0.00 31 1005.6
20260505205330 81 192 2.6 20.9 0.00 0.00 0.00 31 1005.6
20260505205324 81 211 1.7 20.9 0.00 0.00 0.00 31 1005.6
20260505205315 81 234 1.7 20.9 0.00 0.00 0.00 31 1005.6
20260505205051 81 220 1.7 20.9 0.00 0.00 0.00 31 1005.6
20260505205020 81 212 0.0 20.9 0.00 0.00 0.00 31 1005.5
20260505204610 82 174 1.7 17.4 0.00 0.00 0.00 31 1005.7
20260505204603 82 185 1.7 17.4 0.00 0.00 0.00 31 1005.7
20260505204520 82 215 2.6 17.4 0.00 0.00 0.00 32 1005.5
20260505204355 82 232 1.7 17.4 0.00 0.00 0.00 31 1005.7
20260505204254 82 180 2.6 17.4 0.00 0.00 0.00 31 1005.7
20260505204209 82 232 2.6 18.2 0.00 0.00 0.00 31 1005.7
20260505204204 82 222 2.6 18.2 0.00 0.00 0.00 31 1005.7
20260505204048 82 194 2.6 18.2 0.00 0.00 0.00 31 1005.7
20260505204020 82 228 0.0 17.4 0.00 0.00 0.00 31 1005.6
20260505203952 82 198 2.6 18.2 0.00 0.00 0.00 31 1005.8
20260505203851 82 184 2.6 18.2 0.00 0.00 0.00 31 1005.8
20260505203749 82 255 3.5 18.2 0.00 0.00 0.00 30 1005.8
20260505203649 82 213 2.6 21.7 0.00 0.00 0.00 31 1005.8
20260505203553 82 219 2.6 21.7 0.00 0.00 0.00 30 1005.7
20260505203546 82 240 2.6 21.7 0.00 0.00 0.00 30 1005.7
20260505203520 82 167 0.0 21.7 0.00 0.00 0.00 31 1005.6
20260505203510 82 250 2.6 21.7 0.00 0.00 0.00 31 1005.8
20260505203357 82 238 2.6 21.7 0.00 0.00 0.00 31 1005.7
20260505203229 82 200 1.7 21.7 0.00 0.00 0.00 31 1005.7
20260505203223 82 192 1.7 21.7 0.00 0.00 0.00 31 1005.7
20260505203213 82 230 1.7 21.7 0.00 0.00 0.00 31 1005.7
20260505203020 82 165 0.0 21.7 0.00 0.00 0.00 30 1005.5
20260505202955 82 202 1.7 21.7 0.00 0.00 0.00 30 1005.7
20260505202745 82 169 0.9 21.7 0.00 0.00 0.00 30 1005.7
20260505202646 82 207 0.9 11.3 0.00 0.00 0.00 31 1005.9
20260505202545 82 152 0.9 11.3 0.00 0.00 0.00 30 1005.7
20260505202520 82 258 0.0 11.3 0.00 0.00 0.00 30 1005.6
20260505202445 82 211 0.9 11.3 0.00 0.00 0.00 30 1005.8
20260505202343 82 246 0.9 11.3 0.00 0.00 0.00 30 1005.7
20260505202243 82 194 0.9 11.3 0.00 0.00 0.00 30 1005.8
20260505202141 82 165 1.7 12.2 0.00 0.00 0.00 31 1005.8
20260505202047 82 191 1.7 19.1 0.00 0.00 0.00 31 1005.8
20260505202040 82 182 1.7 19.1 0.00 0.00 0.00 31 1005.8
20260505202020 82 179 0.0 19.1 0.00 0.00 0.00 31 1005.5
20260505201940 82 219 1.7 19.1 0.00 0.00 0.00 31 1005.7
20260505201840 82 210 1.7 19.1 0.00 0.00 0.00 31 1005.7
20260505201738 82 178 1.7 19.1 0.00 0.00 0.00 31 1005.7
20260505201638 82 288 2.6 19.1 0.00 0.00 0.00 31 1005.7
20260505201545 82 175 2.6 19.1 0.00 0.00 0.00 31 1005.8
20260505201538 82 182 2.6 19.1 0.00 0.00 0.00 31 1005.8
20260505201520 82 176 0.0 19.1 0.00 0.00 0.00 31 1005.5
20260505201437 82 231 2.6 19.1 0.00 0.00 0.00 30 1005.7
20260505201337 82 236 2.6 19.1 0.00 0.00 0.00 31 1005.8
20260505201316 82 199 2.6 19.1 0.00 0.00 0.00 31 1005.8
20260505201235 82 167 2.6 19.1 0.00 0.00 0.00 31 1005.7
20260505201203 82 199 2.6 19.1 0.00 0.00 0.00 31 1005.8
20260505201158 82 180 1.7 19.1 0.00 0.00 0.00 30 1005.8
20260505201043 82 174 2.6 19.1 0.00 0.00 0.00 31 1005.8
20260505201020 82 207 0.0 18.2 0.00 0.00 0.00 31 1005.6
20260505200833 82 200 2.6 19.1 0.00 0.00 0.00 31 1005.8
20260505200733 82 184 2.6 19.1 0.00 0.00 0.00 30 1005.8
20260505200632 82 190 2.6 19.1 0.00 0.00 0.00 30 1005.8
20260505200545 82 188 2.6 16.5 0.00 0.00 0.00 30 1005.8
20260505200532 82 196 2.6 16.5 0.00 0.00 0.00 31 1005.8
20260505200520 82 209 0.0 13.9 0.00 0.00 0.00 31 1005.6
20260505200431 82 210 2.6 16.5 0.00 0.00 0.00 30 1005.8
20260505200349 82 194 2.6 16.5 0.00 0.00 0.00 31 1005.9
20260505200345 82 179 2.6 15.6 0.00 0.00 0.00 30 1005.9
20260505200340 82 186 2.6 16.5 0.00 0.00 0.00 30 1005.8
20260505200153 82 202 2.6 16.5 0.00 0.00 0.00 30 1005.8
20260505200030 82 164 2.6 15.6 0.00 0.00 0.00 30 1005.9
20260505200020 82 148 7.8 13.0 0.00 0.00 0.00 31 1005.7
20260505195928 82 218 2.6 13.9 0.00 0.00 0.00 30 1005.9
20260505195842 82 252 2.6 13.9 0.00 0.00 0.00 30 1005.9
20260505195837 82 191 2.6 13.9 0.00 0.00 0.00 30 1005.9
20260505195627 82 171 2.6 13.9 0.00 0.00 0.00 30 1005.9
20260505195544 82 208 2.6 13.9 0.00 0.00 0.00 31 1005.9
20260505195525 82 169 2.6 19.1 0.00 0.00 0.00 31 1005.9
20260505195520 82 259 0.0 19.1 0.00 0.00 0.00 30 1005.7
20260505195424 82 141 2.6 19.1 0.00 0.00 0.00 31 1005.9
20260505195325 82 163 2.6 19.1 0.00 0.00 0.00 31 1006.0
20260505195224 82 213 2.6 19.1 0.00 0.00 0.00 32 1006.0
20260505195123 82 238 2.6 19.1 0.00 0.00 0.00 30 1006.0
20260505195044 82 180 1.7 19.1 0.00 0.00 0.00 31 1006.0
20260505195030 82 196 1.7 19.1 0.00 0.00 0.00 31 1006.0
20260505195021 82 173 1.7 19.1 0.00 0.00 0.00 31 1006.1
20260505194910 82 187 2.6 16.5 0.00 0.00 0.00 30 1006.0
20260505194904 82 143 1.7 19.1 0.00 0.00 0.00 31 1006.0
20260505194750 82 179 1.7 19.1 0.00 0.00 0.00 30 1005.9
20260505194633 82 169 2.6 19.1 0.00 0.00 0.00 30 1006.0
20260505194550 82 218 0.9 16.5 0.00 0.00 0.00 30 1005.8
20260505194317 82 182 2.6 16.5 0.00 0.00 0.00 31 1005.9
20260505194215 82 202 2.6 16.5 0.00 0.00 0.00 31 1006.0
20260505194115 82 197 2.6 16.5 0.00 0.00 0.00 32 1006.0
20260505194044 82 213 2.6 16.5 0.00 0.00 0.00 31 1005.9
20260505194020 82 176 0.0 16.5 0.00 0.00 0.00 31 1005.8
20260505194015 82 176 2.6 16.5 0.00 0.00 0.00 31 1005.9
20260505193929 82 198 2.6 16.5 0.00 0.00 0.00 30 1006.0
20260505193924 82 232 2.6 16.5 0.00 0.00 0.00 31 1006.0
20260505193714 82 196 3.5 18.2 0.00 0.00 0.00 30 1006.0
20260505193633 82 209 1.7 18.2 0.00 0.00 0.00 30 1006.0
20260505193628 82 207 2.6 18.2 0.00 0.00 0.00 30 1006.1
20260505193620 82 178 1.7 18.2 0.00 0.00 0.00 30 1006.1
20260505193520 82 236 0.9 18.2 0.00 0.00 0.00 30 1005.8
20260505193413 82 180 1.7 20.9 0.00 0.00 0.00 30 1006.0
20260505193313 82 252 1.7 20.9 0.00 0.00 0.00 30 1006.1
20260505193212 82 212 1.7 20.9 0.00 0.00 0.00 31 1006.0
20260505193111 82 232 1.7 20.9 0.00 0.00 0.00 32 1006.1
20260505193041 82 216 1.7 20.9 0.00 0.00 0.00 32 1006.1
20260505193020 82 247 0.0 20.9 0.00 0.00 0.00 30 1005.8
20260505193010 82 240 2.6 20.9 0.00 0.00 0.00 30 1006.0
20260505192908 82 192 2.6 20.9 0.00 0.00 0.00 31 1006.1
20260505192809 82 222 2.6 20.9 0.00 0.00 0.00 30 1006.1
20260505192707 82 198 2.6 20.9 0.00 0.00 0.00 31 1006.1
20260505192636 82 205 3.5 20.9 0.00 0.00 0.00 31 1006.1
20260505192628 82 177 3.5 20.9 0.00 0.00 0.00 31 1006.1
20260505192520 82 232 0.9 20.9 0.00 0.00 0.00 31 1005.9
20260505192517 82 193 3.5 20.9 0.00 0.00 0.00 31 1006.1
20260505192325 82 180 3.5 18.2 0.00 0.00 0.00 31 1006.1
20260505192321 82 252 3.5 18.2 0.00 0.00 0.00 32 1006.2
20260505192316 82 192 3.5 18.2 0.00 0.00 0.00 32 1006.2
20260505192147 82 186 3.5 18.2 0.00 0.00 0.00 31 1006.1
20260505192020 82 211 0.0 16.5 0.00 0.00 0.00 31 1005.9
20260505192005 82 227 2.6 18.2 0.00 0.00 0.00 31 1006.1
20260505191906 82 223 2.6 15.6 0.00 0.00 0.00 31 1006.2
20260505191805 82 165 1.7 15.6 0.00 0.00 0.00 32 1006.1
20260505191717 82 215 1.7 18.2 0.00 0.00 0.00 31 1006.1
20260505191713 82 168 1.7 15.6 0.00 0.00 0.00 31 1006.1
20260505191538 83 157 1.7 18.2 0.00 0.00 0.00 31 1006.1
20260505191520 83 175 0.9 17.4 0.00 0.00 0.00 31 1006.0
20260505191516 83 182 1.7 18.2 0.00 0.00 0.00 32 1006.2
20260505191512 83 150 1.7 18.2 0.00 0.00 0.00 33 1006.2
20260505191301 83 240 1.7 18.2 0.00 0.00 0.00 33 1006.2
20260505191202 82 186 1.7 18.2 0.00 0.00 0.00 32 1006.2
20260505191101 82 240 1.7 18.2 0.00 0.00 0.00 32 1006.2
20260505191038 82 200 1.7 18.2 0.00 0.00 0.00 33 1006.2
20260505191020 82 172 1.7 17.4 0.00 0.00 0.00 33 1006.0
20260505191000 82 189 1.7 18.2 0.00 0.00 0.00 33 1006.2
20260505190859 82 234 2.6 18.2 0.00 0.00 0.00 33 1006.3
20260505190811 82 189 3.5 18.2 0.00 0.00 0.00 32 1006.2
20260505190807 82 209 2.6 18.2 0.00 0.00 0.00 32 1006.2
20260505190558 82 215 2.6 16.5 0.00 0.00 0.00 32 1006.2
20260505190538 82 199 2.6 16.5 0.00 0.00 0.00 32 1006.2
20260505190520 82 199 0.9 16.5 0.00 0.00 0.00 32 1006.1
20260505190457 82 169 2.6 16.5 0.00 0.00 0.00 32 1006.3
20260505190357 82 173 2.6 16.5 0.00 0.00 0.00 35 1006.2
20260505190256 82 255 2.6 16.5 0.00 0.00 0.00 33 1006.3
20260505190155 82 253 2.6 16.5 0.00 0.00 0.00 35 1006.3
20260505190055 82 215 2.6 16.5 0.00 0.00 0.00 33 1006.3
20260505190037 82 205 2.6 16.5 0.00 0.00 0.00 33 1006.3
20260505190020 82 178 0.0 16.5 0.00 0.00 0.00 33 1006.2
20260505185955 82 210 2.6 16.5 0.00 0.00 0.00 33 1006.4
20260505185855 83 204 1.7 16.5 0.00 0.00 0.00 33 1006.4
20260505185807 83 166 0.9 16.5 0.00 0.00 0.00 32 1006.4
20260505185803 83 173 1.7 16.5 0.00 0.00 0.00 32 1006.3
20260505185554 83 173 0.9 12.2 0.00 0.00 0.00 33 1006.5
20260505185535 83 193 0.0 12.2 0.00 0.00 0.00 34 1006.3
20260505185453 83 160 0.9 12.2 0.00 0.00 0.00 34 1006.5
20260505185352 83 220 0.9 12.2 0.00 0.00 0.00 35 1006.4
20260505185251 83 199 0.9 12.2 0.00 0.00 0.00 36 1006.4
20260505185151 83 234 0.9 12.2 0.00 0.00 0.00 36 1006.4
20260505185050 83 204 0.9 12.2 0.00 0.00 0.00 35 1006.4
20260505185035 83 194 0.9 12.2 0.00 0.00 0.00 35 1006.4
20260505185020 83 134 6.1 12.2 0.00 0.00 0.00 35 1006.2
20260505184950 83 212 0.9 12.2 0.00 0.00 0.00 35 1006.4
20260505184849 83 198 0.9 9.6 0.00 0.00 0.00 36 1006.4
20260505184801 83 173 0.9 10.4 0.00 0.00 0.00 35 1006.4
20260505184757 83 188 0.9 9.6 0.00 0.00 0.00 35 1006.4
20260505184601 83 196 0.9 10.4 0.00 0.00 0.00 36 1006.4
20260505184553 83 165 0.9 10.4 0.00 0.00 0.00 36 1006.4
20260505184550 83 203 0.0 10.4 0.00 0.00 0.00 35 1006.3
20260505184546 83 218 0.9 10.4 0.00 0.00 0.00 35 1006.5
20260505184434 83 153 0.9 10.4 0.00 0.00 0.00 34 1006.6
20260505184429 83 186 0.9 10.4 0.00 0.00 0.00 35 1006.5
20260505184316 83 175 0.9 10.4 0.00 0.00 0.00 35 1006.5
20260505184157 83 166 0.9 10.4 0.00 0.00 0.00 34 1006.6
20260505184021 83 223 0.0 10.4 0.00 0.00 0.00 34 1006.3
20260505183855 83 162 1.7 16.5 0.00 0.00 0.00 34 1006.7
20260505183851 83 186 0.9 10.4 0.00 0.00 0.00 34 1006.5
20260505183641 83 213 1.7 16.5 0.00 0.00 0.00 35 1006.6
20260505183542 82 209 1.7 16.5 0.00 0.00 0.00 34 1006.6
20260505183534 82 261 1.7 16.5 0.00 0.00 0.00 34 1006.6
20260505183521 82 195 0.0 11.3 0.00 0.00 0.00 34 1006.3
20260505183439 82 189 0.9 16.5 0.00 0.00 0.00 35 1006.5
20260505183339 82 175 0.9 16.5 0.00 0.00 0.00 34 1006.6
20260505183239 82 186 1.7 16.5 0.00 0.00 0.00 35 1006.5
20260505183138 82 173 1.7 16.5 0.00 0.00 0.00 35 1006.6
20260505183042 82 177 1.7 16.5 0.00 0.00 0.00 33 1006.7
20260505183037 82 192 1.7 16.5 0.00 0.00 0.00 33 1006.7
20260505183035 82 154 5.2 12.2 0.00 0.00 0.00 33 1006.5
20260505182936 82 200 1.7 16.5 0.00 0.00 0.00 34 1006.7
20260505182850 83 244 1.7 13.0 0.00 0.00 0.00 34 1006.6
20260505182846 82 130 1.7 16.5 0.00 0.00 0.00 33 1006.7
20260505182635 83 192 1.7 13.9 0.00 0.00 0.00 36 1006.8
20260505182536 83 205 1.7 13.9 0.00 0.00 0.00 36 1006.7
20260505182521 83 182 1.7 13.9 0.00 0.00 0.00 36 1006.5
20260505182434 83 174 1.7 13.9 0.00 0.00 0.00 34 1006.7
20260505182334 83 210 1.7 13.9 0.00 0.00 0.00 34 1006.5
20260505182233 83 186 1.7 13.9 0.00 0.00 0.00 36 1006.7
20260505182133 83 109 1.7 13.9 0.00 0.00 0.00 34 1006.7
20260505182037 83 203 1.7 13.9 0.00 0.00 0.00 33 1006.8
20260505182031 83 197 1.7 13.9 0.00 0.00 0.00 33 1006.8
20260505182020 83 155 2.6 13.9 0.00 0.00 0.00 33 1006.5
20260505181931 83 199 0.9 13.9 0.00 0.00 0.00 36 1006.7
20260505181829 83 186 0.9 13.9 0.00 0.00 0.00 34 1006.7
20260505181743 83 144 0.9 8.7 0.00 0.00 0.00 35 1006.8
20260505181739 83 210 0.9 11.3 0.00 0.00 0.00 35 1006.8
20260505181535 83 196 0.9 8.7 0.00 0.00 0.00 35 1006.7
20260505181529 83 188 0.9 8.7 0.00 0.00 0.00 35 1006.7
20260505181520 83 227 0.0 7.8 0.00 0.00 0.00 36 1006.6
20260505181428 83 165 0.9 8.7 0.00 0.00 0.00 35 1006.8
20260505181327 83 222 0.9 8.7 0.00 0.00 0.00 35 1006.8
20260505181227 83 205 0.9 8.7 0.00 0.00 0.00 37 1006.9
20260505181126 83 204 0.9 8.7 0.00 0.00 0.00 36 1006.9
20260505181034 83 269 0.9 12.2 0.00 0.00 0.00 37 1006.9
20260505181025 83 265 0.9 12.2 0.00 0.00 0.00 37 1006.9
20260505181020 83 273 0.0 12.2 0.00 0.00 0.00 37 1006.7
20260505180937 82 209 1.7 12.2 0.00 0.00 0.00 36 1006.9
20260505180933 83 189 0.9 12.2 0.00 0.00 0.00 37 1006.9
20260505180737 82 176 1.7 14.8 0.00 0.00 0.00 36 1006.9
20260505180733 82 208 1.7 14.8 0.00 0.00 0.00 35 1006.9
20260505180531 82 209 1.7 14.8 0.00 0.00 0.00 36 1007.0
20260505180523 82 194 1.7 14.8 0.00 0.00 0.00 36 1007.0
20260505180520 82 188 0.0 14.8 0.00 0.00 0.00 36 1006.8
20260505180423 82 214 1.7 14.8 0.00 0.00 0.00 35 1006.9
20260505180322 82 236 1.7 14.8 0.00 0.00 0.00 35 1006.9
20260505180222 82 194 1.7 14.8 0.00 0.00 0.00 34 1006.9
20260505180122 82 171 1.7 14.8 0.00 0.00 0.00 35 1006.9
20260505180028 83 171 1.7 14.8 0.00 0.00 0.00 34 1007.0
20260505180021 83 153 1.7 14.8 0.00 0.00 0.00 34 1007.0
20260505175920 83 211 1.7 14.8 0.00 0.00 0.00 35 1006.9
20260505175818 83 209 0.9 14.8 0.00 0.00 0.00 35 1007.0
20260505175718 83 173 0.9 12.2 0.00 0.00 0.00 35 1007.0
20260505175618 83 185 0.9 12.2 0.00 0.00 0.00 35 1007.0
20260505175528 83 180 0.0 5.2 0.00 0.00 0.00 36 1007.0
20260505175520 83 181 0.0 5.2 0.00 0.00 0.00 36 1006.8
20260505175517 83 212 0.0 5.2 0.00 0.00 0.00 36 1007.0
20260505175416 83 194 0.0 5.2 0.00 0.00 0.00 35 1007.0
20260505175316 83 209 0.0 9.6 0.00 0.00 0.00 36 1007.0
20260505175214 83 201 0.9 9.6 0.00 0.00 0.00 35 1007.0
20260505175114 83 229 0.9 9.6 0.00 0.00 0.00 35 1007.1
20260505175027 83 236 0.9 9.6 0.00 0.00 0.00 35 1007.1
20260505175020 83 233 0.0 7.0 0.00 0.00 0.00 35 1006.8
20260505175013 83 233 0.9 9.6 0.00 0.00 0.00 35 1007.0
20260505174913 83 151 0.9 9.6 0.00 0.00 0.00 35 1007.0
20260505174812 83 292 0.9 9.6 0.00 0.00 0.00 35 1007.0
20260505174711 83 190 0.9 9.6 0.00 0.00 0.00 35 1007.0
20260505174610 83 180 0.9 9.6 0.00 0.00 0.00 35 1007.0
20260505174528 83 188 0.9 13.0 0.00 0.00 0.00 34 1007.0
20260505174520 83 190 0.0 13.0 0.00 0.00 0.00 34 1006.8
20260505174510 83 190 0.9 13.0 0.00 0.00 0.00 34 1007.0
20260505174432 83 176 0.9 13.0 0.00 0.00 0.00 35 1007.1
20260505174319 83 208 0.9 13.0 0.00 0.00 0.00 34 1007.1
20260505174110 83 188 0.9 13.0 0.00 0.00 0.00 36 1007.0
20260505174025 83 220 0.9 13.0 0.00 0.00 0.00 36 1007.0
20260505174020 83 189 0.0 13.0 0.00 0.00 0.00 36 1006.8
20260505174008 83 315 0.9 13.0 0.00 0.00 0.00 36 1007.0
20260505173908 83 303 0.9 13.0 0.00 0.00 0.00 35 1007.1
20260505173808 83 236 0.9 13.0 0.00 0.00 0.00 35 1007.1
20260505173752 83 178 0.9 13.0 0.00 0.00 0.00 38 1007.0
20260505173747 83 208 0.9 8.7 0.00 0.00 0.00 37 1007.1
20260505173742 83 219 0.9 12.2 0.00 0.00 0.00 38 1007.1
20260505173737 83 235 0.9 13.0 0.00 0.00 0.00 34 1007.1
20260505173620 83 227 0.9 8.7 0.00 0.00 0.00 38 1007.0
20260505173520 83 206 0.0 8.7 0.00 0.00 0.00 38 1006.9
20260505173304 83 236 0.9 12.2 0.00 0.00 0.00 39 1007.2
20260505173213 82 300 0.9 12.2 0.00 0.00 0.00 40 1007.2
20260505173209 83 179 0.9 12.2 0.00 0.00 0.00 41 1007.2
20260505173026 82 214 0.9 13.0 0.00 0.00 0.00 37 1007.2
20260505173020 82 170 0.0 13.0 0.00 0.00 0.00 37 1007.0
20260505172959 82 265 0.9 13.0 0.00 0.00 0.00 37 1007.2
20260505172859 83 209 0.9 13.0 0.00 0.00 0.00 37 1007.2
20260505172758 83 182 0.9 13.0 0.00 0.00 0.00 36 1007.2
20260505172657 83 207 0.9 13.0 0.00 0.00 0.00 36 1007.2
20260505172557 83 187 0.9 13.0 0.00 0.00 0.00 37 1007.2
20260505172525 83 169 0.9 13.0 0.00 0.00 0.00 37 1007.2
20260505172520 83 182 0.9 13.0 0.00 0.00 0.00 37 1007.1
20260505172456 83 193 0.9 13.0 0.00 0.00 0.00 37 1007.3
20260505172356 83 227 0.9 13.0 0.00 0.00 0.00 40 1007.2
20260505172308 83 213 0.9 13.0 0.00 0.00 0.00 38 1007.2
20260505172305 83 278 0.9 13.0 0.00 0.00 0.00 39 1007.1
20260505172113 83 186 0.9 9.6 0.00 0.00 0.00 37 1007.2
20260505172108 83 183 0.9 13.0 0.00 0.00 0.00 37 1007.2
20260505172100 83 165 0.9 9.6 0.00 0.00 0.00 37 1007.2
20260505172020 83 184 0.0 9.6 0.00 0.00 0.00 37 1007.0
20260505171853 83 194 0.9 9.6 0.00 0.00 0.00 36 1007.2
20260505171752 83 259 0.9 9.6 0.00 0.00 0.00 37 1007.0
20260505171705 83 199 0.9 7.0 0.00 0.00 0.00 39 1007.2
20260505171700 83 202 0.9 7.0 0.00 0.00 0.00 41 1007.2
20260505171550 83 163 0.0 6.1 0.00 0.00 0.00 38 1007.0
20260505171525 83 212 0.9 7.0 0.00 0.00 0.00 38 1007.2
20260505171447 83 186 0.9 7.0 0.00 0.00 0.00 38 1007.2
20260505171346 83 213 0.9 6.1 0.00 0.00 0.00 39 1007.2
20260505171246 83 236 0.9 6.1 0.00 0.00 0.00 37 1007.2
20260505171145 83 153 0.9 6.1 0.00 0.00 0.00 37 1007.3
20260505171044 83 156 0.9 6.1 0.00 0.00 0.00 36 1007.2
20260505171026 83 173 0.9 6.1 0.00 0.00 0.00 38 1007.2
20260505171020 83 198 1.7 6.1 0.00 0.00 0.00 38 1006.9
20260505170944 83 194 0.0 6.1 0.00 0.00 0.00 38 1007.1
20260505170909 83 226 0.0 5.2 0.00 0.00 0.00 38 1007.2
20260505170905 83 231 0.0 5.2 0.00 0.00 0.00 37 1007.2
20260505170900 83 178 0.0 5.2 0.00 0.00 0.00 40 1007.3
20260505170541 83 196 0.0 5.2 0.00 0.00 0.00 38 1007.2
20260505170526 83 259 0.0 5.2 0.00 0.00 0.00 38 1007.2
20260505170520 83 213 0.0 5.2 0.00 0.00 0.00 38 1007.1
20260505170441 83 186 0.0 5.2 0.00 0.00 0.00 38 1007.3
20260505170353 83 221 0.0 5.2 0.00 0.00 0.00 37 1007.3
20260505170349 83 215 0.0 5.2 0.00 0.00 0.00 36 1007.2
20260505170141 83 205 0.0 5.2 0.00 0.00 0.00 37 1007.2
20260505170040 83 180 0.0 5.2 0.00 0.00 0.00 36 1007.2
20260505170025 83 178 0.0 5.2 0.00 0.00 0.00 36 1007.2
20260505170020 83 171 0.0 5.2 0.00 0.00 0.00 36 1007.0
20260505165941 83 169 0.0 5.2 0.00 0.00 0.00 36 1007.2
20260505165839 83 167 0.0 5.2 0.00 0.00 0.00 36 1007.3
20260505165738 83 192 0.0 5.2 0.00 0.00 0.00 35 1007.2
20260505165651 83 253 0.0 5.2 0.00 0.00 0.00 38 1007.3
20260505165646 83 221 0.0 5.2 0.00 0.00 0.00 36 1007.2
20260505165535 83 227 0.0 5.2 0.00 0.00 0.00 38 1007.1
20260505165525 83 212 0.0 5.2 0.00 0.00 0.00 38 1007.3
20260505165437 83 231 0.0 5.2 0.00 0.00 0.00 36 1007.3
20260505165336 83 159 0.0 5.2 0.00 0.00 0.00 39 1007.3
20260505165236 83 243 0.0 5.2 0.00 0.00 0.00 37 1007.3
20260505165135 83 184 0.0 5.2 0.00 0.00 0.00 36 1007.4
20260505165054 84 195 0.0 4.3 0.00 0.00 0.00 38 1007.3
20260505165048 84 183 0.0 4.3 0.00 0.00 0.00 35 1007.4
20260505165041 84 143 0.0 4.3 0.00 0.00 0.00 35 1007.4
20260505165020 84 176 0.9 3.5 0.00 0.00 0.00 35 1007.1
20260505164833 84 203 0.0 4.3 0.00 0.00 0.00 37 1007.4
20260505164756 84 188 0.0 4.3 0.00 0.00 0.00 35 1007.4
20260505164750 84 192 0.0 4.3 0.00 0.00 0.00 37 1007.3
20260505164741 84 224 0.0 4.3 0.00 0.00 0.00 38 1007.3
20260505164520 84 186 0.0 3.5 0.00 0.00 0.00 35 1007.2
20260505164432 84 177 0.0 4.3 0.00 0.00 0.00 37 1007.4
20260505164331 84 242 0.0 0.9 0.00 0.00 0.00 36 1007.4
20260505164231 84 246 0.0 0.9 0.00 0.00 0.00 36 1007.4
20260505164129 84 231 0.0 0.9 0.00 0.00 0.00 36 1007.4
20260505164032 84 280 0.0 0.9 0.00 0.00 0.00 36 1007.5
20260505164025 84 251 0.0 0.9 0.00 0.00 0.00 36 1007.5
20260505164020 84 238 0.0 0.9 0.00 0.00 0.00 36 1007.2
20260505163928 84 233 0.0 0.9 0.00 0.00 0.00 37 1007.4
20260505163827 84 213 0.0 1.7 0.00 0.00 0.00 37 1007.4
20260505163728 84 210 0.0 6.1 0.00 0.00 0.00 38 1007.4
20260505163627 83 198 0.0 6.1 0.00 0.00 0.00 37 1007.4
20260505163528 83 217 0.0 6.1 0.00 0.00 0.00 37 1007.4
20260505163520 84 167 0.0 6.1 0.00 0.00 0.00 37 1007.2
20260505163426 83 199 0.0 6.1 0.00 0.00 0.00 38 1007.4
20260505163325 83 193 0.0 6.1 0.00 0.00 0.00 38 1007.5
20260505163224 83 233 0.0 6.1 0.00 0.00 0.00 37 1007.4
20260505163144 83 192 0.0 7.0 0.00 0.00 0.00 40 1007.5
20260505163138 83 229 0.0 7.0 0.00 0.00 0.00 39 1007.4
20260505163129 83 202 0.0 7.0 0.00 0.00 0.00 40 1007.5
20260505163020 83 204 0.0 7.0 0.00 0.00 0.00 38 1007.3
20260505162923 83 219 0.0 7.0 0.00 0.00 0.00 37 1007.5
20260505162822 82 279 0.0 7.0 0.00 0.00 0.00 38 1007.5
20260505162750 82 163 0.0 13.0 0.00 0.00 0.00 37 1007.4
20260505162722 82 213 0.0 7.0 0.00 0.00 0.00 37 1007.4